Latitude: N 50° 09' 49" Longitude: W 05° 11' 53" Elevation: 168m ASL

There are 22 visitors online

Adverts

<- Previous Day | Today | Next Day ->

All Data for 11 July 2019

Time
A - D
Temp
A - D
Dew Point
A - D
Humidity
A - D
Pressure
A - D
Wind
A - D
Wind Dir Gust
A - D
Rain Rate
A - D
Rain Total
00:00 15.8 11.2 74 1017.1 0.0 N 0.0 0.0 0.0
00:01 15.8 11.2 74 1017.1 0.0 N 0.0 0.0 0.0
00:02 15.8 11.2 74 1017.0 0.0 N 0.0 0.0 0.0
00:03 15.8 11.2 74 1017.1 0.0 N 0.0 0.0 0.0
00:04 15.8 11.2 74 1017.1 0.0 N 0.0 0.0 0.0
00:05 15.8 11.2 74 1017.0 0.0 N 0.0 0.0 0.0
00:06 15.8 11.2 74 1017.1 0.0 N 0.0 0.0 0.0
00:07 15.8 11.2 74 1017.0 0.0 N 0.0 0.0 0.0
00:08 15.8 11.2 74 1017.1 0.0 W 0.0 0.0 0.0
00:09 15.8 11.2 74 1016.9 0.0 W 0.0 0.0 0.0
00:10 15.8 11.2 74 1016.9 0.0 SE 0.0 0.0 0.0
00:12 15.8 11.2 74 1017.1 0.0 SE 0.0 0.0 0.0
00:13 15.8 11.2 74 1017.0 0.0 SE 0.0 0.0 0.0
00:14 15.8 11.2 74 1017.0 0.0 SE 0.0 0.0 0.0
00:15 15.8 11.2 74 1016.9 0.0 SE 0.0 0.0 0.0
00:16 15.8 11.2 74 1017.0 0.0 SE 0.0 0.0 0.0
00:17 15.8 11.2 74 1016.8 0.0 SE 0.0 0.0 0.0
00:18 15.7 11.1 74 1016.8 0.0 SE 0.0 0.0 0.0
00:19 15.7 11.1 74 1016.8 0.0 SE 0.0 0.0 0.0
00:20 15.7 11.1 74 1016.8 0.0 SE 0.0 0.0 0.0
00:21 15.7 11.1 74 1016.6 0.0 SE 0.0 0.0 0.0
00:22 15.7 11.1 74 1016.7 0.0 SE 0.0 0.0 0.0
00:23 15.7 11.3 75 1016.7 0.0 SE 0.0 0.0 0.0
00:24 15.7 11.3 75 1016.6 0.0 SE 0.0 0.0 0.0
00:25 15.7 11.3 75 1016.7 0.0 SE 0.0 0.0 0.0
00:26 15.7 11.3 75 1016.6 0.0 SE 0.0 0.0 0.0
00:27 15.7 11.3 75 1016.6 0.0 SE 0.0 0.0 0.0
00:28 15.7 11.3 75 1016.6 0.0 SE 0.0 0.0 0.0
00:29 15.7 11.3 75 1016.5 0.0 SE 0.0 0.0 0.0
00:30 15.7 11.3 75 1016.6 0.0 SE 0.0 0.0 0.0
00:31 15.7 11.3 75 1016.5 0.0 N 0.0 0.0 0.0
00:32 15.7 11.3 75 1016.5 0.0 N 0.0 0.0 0.0
00:33 15.7 11.3 75 1016.5 0.0 N 0.0 0.0 0.0
00:34 15.7 11.3 75 1016.5 0.0 N 0.0 0.0 0.0
00:35 15.7 11.3 75 1016.5 0.0 N 0.0 0.0 0.0
00:36 15.7 11.3 75 1016.7 0.0 N 0.0 0.0 0.0
00:37 15.8 11.4 75 1016.5 0.0 N 0.0 0.0 0.0
00:38 15.8 11.4 75 1016.6 0.0 S 0.0 0.0 0.0
00:39 15.8 11.4 75 1016.6 0.0 E 0.0 0.0 0.0
00:40 15.8 11.4 75 1016.6 0.0 E 0.0 0.0 0.0
00:41 15.8 11.4 75 1016.5 0.0 E 0.0 0.0 0.0
00:42 15.8 11.4 75 1016.6 0.0 E 0.0 0.0 0.0
00:43 15.8 11.4 75 1016.6 0.0 E 0.0 0.0 0.0
00:44 15.8 11.4 75 1016.7 0.0 E 0.0 0.0 0.0
00:45 15.8 11.4 75 1016.6 0.0 E 0.0 0.0 0.0
00:46 15.8 11.4 75 1016.7 0.0 SE 0.0 0.0 0.0
00:47 15.8 11.4 75 1016.6 0.0 S 0.0 0.0 0.0
00:48 15.8 11.4 75 1016.7 0.0 SE 0.0 0.0 0.0
00:50 15.8 11.4 75 1016.7 0.0 SE 0.0 0.0 0.0
00:51 15.8 11.6 76 1016.7 0.0 SE 0.0 0.0 0.0
00:52 15.7 11.3 75 1016.6 0.0 SE 0.0 0.0 0.0
00:53 15.8 11.6 76 1016.6 0.0 SE 0.0 0.0 0.0
00:54 15.7 11.5 76 1016.5 0.0 SE 0.0 0.0 0.0
00:55 15.7 11.5 76 1016.6 0.0 SE 0.0 0.0 0.0
00:56 15.7 11.5 76 1016.7 0.0 S 0.0 0.0 0.0
00:57 15.7 11.5 76 1016.7 0.0 S 0.0 0.0 0.0
00:58 15.8 11.6 76 1016.6 0.0 S 0.0 0.0 0.0
00:59 15.8 11.6 76 1016.7 0.0 S 0.0 0.0 0.0
01:00 15.8 11.6 76 1016.6 0.0 S 0.0 0.0 0.0
01:01 15.8 11.6 76 1016.5 0.0 S 0.0 0.0 0.0
01:02 15.8 11.6 76 1016.6 0.0 S 0.0 0.0 0.0
01:03 15.8 11.6 76 1016.5 0.0 S 0.0 0.0 0.0
01:04 15.8 11.6 76 1016.5 0.0 S 0.0 0.0 0.0
01:05 15.8 11.6 76 1016.6 0.0 S 0.0 0.0 0.0
01:06 15.8 11.6 76 1016.5 0.0 S 0.0 0.0 0.0
01:07 15.8 11.6 76 1016.4 0.0 S 0.0 0.0 0.0
01:08 15.8 11.6 76 1016.6 0.0 S 0.0 0.0 0.0
01:09 15.8 11.6 76 1016.4 0.0 S 0.0 0.0 0.0
01:10 15.8 11.6 76 1016.5 0.0 S 0.0 0.0 0.0
01:11 15.8 11.6 76 1016.5 0.0 S 0.0 0.0 0.0
01:12 15.8 11.6 76 1016.5 0.0 S 0.0 0.0 0.0
01:13 15.8 11.6 76 1016.6 0.0 SE 0.0 0.0 0.0
01:14 15.8 11.6 76 1016.5 0.0 SE 0.0 0.0 0.0
01:15 15.8 11.6 76 1016.5 0.0 SE 0.0 0.0 0.0
01:16 15.8 11.6 76 1016.5 0.0 SE 0.0 0.0 0.0
01:17 15.8 11.6 76 1016.6 0.0 SE 0.0 0.0 0.0
01:18 15.8 11.6 76 1016.5 0.0 SW 0.0 0.0 0.0
01:19 15.8 11.6 76 1016.5 0.0 SW 0.0 0.0 0.0
01:20 15.8 11.6 76 1016.5 0.0 SW 0.0 0.0 0.0
01:21 15.8 11.6 76 1016.4 0.0 S 0.0 0.0 0.0
01:22 15.8 11.6 76 1016.4 0.0 S 0.0 0.0 0.0
01:23 15.7 11.5 76 1016.5 0.0 S 0.0 0.0 0.0
01:24 15.7 11.5 76 1016.4 0.0 S 0.0 0.0 0.0
01:25 15.7 11.7 77 1016.4 0.0 SE 0.0 0.0 0.0
01:26 15.7 11.7 77 1016.4 0.0 W 0.0 0.0 0.0
01:27 15.7 11.7 77 1016.4 0.0 SW 0.0 0.0 0.0
01:28 15.7 11.7 77 1016.3 0.0 NW 0.0 0.0 0.0
01:29 15.7 11.7 77 1016.3 0.0 SW 0.0 0.0 0.0
01:30 15.7 11.7 77 1016.3 0.0 W 0.0 0.0 0.0
01:31 15.7 11.7 77 1016.2 0.0 W 0.0 0.0 0.0
01:33 15.7 11.7 77 1016.3 0.0 S 0.0 0.0 0.0
01:34 15.7 11.7 77 1016.3 0.0 S 0.0 0.0 0.0
01:35 15.7 11.7 77 1016.3 0.0 S 0.0 0.0 0.0
01:36 15.7 11.7 77 1016.4 0.0 SE 0.0 0.0 0.0
01:37 15.7 11.7 77 1016.3 0.0 SE 0.0 0.0 0.0
01:38 15.7 11.7 77 1016.3 0.0 SE 0.0 0.0 0.0
01:39 15.7 11.7 77 1016.3 0.0 SE 0.0 0.0 0.0
01:40 15.7 11.7 77 1016.2 0.0 SE 0.0 0.0 0.0
01:41 15.7 11.7 77 1016.3 0.0 SE 0.0 0.0 0.0
01:42 15.7 11.7 77 1016.3 0.0 SE 0.0 0.0 0.0
01:43 15.7 11.7 77 1016.2 0.0 SE 0.0 0.0 0.0
01:44 15.7 11.7 77 1016.3 0.0 SE 0.0 0.0 0.0
01:45 15.7 11.7 77 1016.3 0.0 SE 0.0 0.0 0.0
01:46 15.7 11.7 77 1016.3 0.0 SE 0.0 0.0 0.0
01:47 15.7 11.7 77 1016.4 0.0 SE 0.0 0.0 0.0
01:48 15.7 11.7 77 1016.2 0.0 SE 0.0 0.0 0.0
01:49 15.7 11.7 77 1016.3 0.0 SE 0.0 0.0 0.0
01:50 15.7 11.7 77 1016.3 0.0 SE 0.0 0.0 0.0
01:51 15.7 11.7 77 1016.2 0.0 SE 0.0 0.0 0.0
01:52 15.7 11.7 77 1016.1 0.0 SE 0.0 0.0 0.0
01:53 15.7 11.7 77 1016.2 0.0 S 0.0 0.0 0.0
01:54 15.7 11.7 77 1016.2 0.0 S 0.0 0.0 0.0
01:55 15.7 11.7 77 1016.2 0.0 S 0.0 0.0 0.0
01:56 15.7 11.7 77 1016.1 0.0 S 0.0 0.0 0.0
01:57 15.7 11.7 77 1016.1 0.0 S 0.0 0.0 0.0
01:58 15.7 11.7 77 1016.1 0.0 S 0.0 0.0 0.0
01:59 15.7 11.9 78 1016.2 0.0 S 0.0 0.0 0.0
02:00 15.7 11.9 78 1016.0 0.0 S 0.0 0.0 0.0
02:01 15.7 11.9 78 1016.0 0.0 S 0.0 0.0 0.0
02:02 15.7 11.9 78 1016.1 0.0 S 0.0 0.0 0.0
02:03 15.7 11.9 78 1016.1 0.0 S 0.0 0.0 0.0
02:04 15.7 11.9 78 1015.9 0.0 S 0.0 0.0 0.0
02:05 15.7 11.9 78 1016.2 0.0 S 0.0 0.0 0.0
02:06 15.7 11.9 78 1016.1 0.0 S 0.0 0.0 0.0
02:07 15.7 11.9 78 1016.0 0.0 S 0.0 0.0 0.0
02:08 15.7 11.9 78 1015.9 0.0 SW 0.0 0.0 0.0
02:09 15.7 11.9 78 1016.1 0.0 SW 0.0 0.0 0.0
02:10 15.7 11.9 78 1016.0 0.0 W 0.0 0.0 0.0
02:11 15.7 11.9 78 1016.0 0.0 W 0.0 0.0 0.0
02:12 15.7 11.9 78 1016.3 3.1 W 3.1 0.0 0.0
02:13 15.7 11.9 78 1016.0 2.2 W 3.1 0.0 0.0
02:14 15.7 11.9 78 1016.1 3.1 W 3.1 0.0 0.0
02:15 15.7 11.9 78 1016.0 3.1 NW 3.1 0.0 0.0
02:16 15.7 11.9 78 1016.0 0.0 W 3.1 0.0 0.0
02:17 15.7 11.9 78 1016.1 0.7 W 3.1 0.0 0.0
02:18 15.8 12.2 79 1016.0 3.1 W 3.1 0.0 0.0
02:19 15.8 12.0 78 1016.1 3.1 W 3.1 0.0 0.0
02:20 15.8 12.2 79 1016.0 3.8 W 3.8 0.0 0.0
02:21 15.8 12.2 79 1016.1 2.2 W 3.8 0.0 0.0
02:22 15.8 12.2 79 1016.1 2.2 W 3.8 0.0 0.0
02:23 15.8 12.2 79 1016.0 2.2 W 3.8 0.0 0.0
02:24 15.8 12.2 79 1016.0 3.1 W 3.8 0.0 0.0
02:25 15.8 12.2 79 1015.8 3.1 SW 3.8 0.0 0.0
02:26 15.8 12.2 79 1016.0 3.1 W 3.8 0.0 0.0
02:27 15.8 12.2 79 1015.9 4.5 W 4.5 0.0 0.0
02:28 15.8 12.2 79 1015.9 3.1 W 4.5 0.0 0.0
02:29 15.9 12.3 79 1015.9 3.1 WSW 4.5 0.0 0.0
02:30 15.9 12.3 79 1016.0 3.8 SW 4.5 0.0 0.0
02:31 15.9 12.3 79 1016.0 3.8 W 4.5 0.0 0.0
02:32 15.9 12.3 79 1015.8 3.1 SW 4.5 0.0 0.0
02:33 15.9 12.3 79 1015.9 2.2 W 4.5 0.0 0.0
02:34 15.9 12.3 79 1015.8 2.2 NW 4.5 0.0 0.0
02:35 15.9 12.3 79 1015.8 1.6 W 4.5 0.0 0.0
02:36 15.9 12.3 79 1015.8 1.6 SW 4.5 0.0 0.0
02:37 15.9 12.3 79 1015.8 2.2 SW 3.8 0.0 0.0
02:38 15.9 12.3 79 1015.8 2.2 SSW 3.8 0.0 0.0
02:39 15.9 12.3 79 1015.8 1.6 SW 3.8 0.0 0.0
02:40 15.9 12.3 79 1015.9 1.6 W 3.8 0.0 0.0
02:41 15.9 12.3 79 1015.8 2.2 S 3.8 0.0 0.0
02:42 15.9 12.3 79 1015.7 1.6 SW 2.2 0.0 0.0
02:43 15.9 12.3 79 1015.7 1.6 SW 2.2 0.0 0.0
02:44 15.9 12.3 79 1015.8 0.0 SW 2.2 0.0 0.0
02:45 15.9 12.3 79 1015.6 0.0 S 2.2 0.0 0.0
02:46 15.9 12.3 79 1015.8 0.0 WSW 2.2 0.0 0.0
02:47 15.9 12.3 79 1015.6 0.0 SW 2.2 0.0 0.0
02:48 15.9 12.3 79 1015.8 0.0 SW 2.2 0.0 0.0
02:49 15.9 12.3 79 1015.7 0.0 NW 2.2 0.0 0.0
02:50 15.9 12.3 79 1015.8 0.0 W 2.2 0.0 0.0
02:51 15.9 12.3 79 1015.7 0.0 SW 2.2 0.0 0.0
02:52 15.9 12.3 79 1015.9 0.0 SW 1.6 0.0 0.0
02:53 15.9 12.3 79 1015.8 0.0 NW 0.7 0.0 0.0
02:54 15.9 12.3 79 1015.7 0.0 SW 0.7 0.0 0.0
02:55 15.9 12.5 80 1015.8 0.0 SW 0.7 0.0 0.0
02:56 15.9 12.3 79 1015.9 3.8 W 3.8 0.0 0.0
02:57 15.9 12.5 80 1015.8 3.1 SW 3.8 0.0 0.0
02:58 15.9 12.5 80 1015.8 2.2 W 3.8 0.0 0.0
02:59 15.9 12.5 80 1015.9 2.2 S 3.8 0.0 0.0
03:00 15.9 12.5 80 1015.9 3.1 W 3.8 0.0 0.0
03:01 15.9 12.5 80 1015.8 3.1 W 3.8 0.0 0.0
03:02 15.9 12.5 80 1015.8 3.1 W 3.8 0.0 0.0
03:03 15.9 12.5 80 1015.7 3.1 W 3.8 0.0 0.0
03:04 15.9 12.5 80 1015.8 3.1 W 3.8 0.0 0.0
03:05 15.9 12.5 80 1015.7 3.1 W 3.8 0.0 0.0
03:06 15.9 12.5 80 1015.8 3.1 SW 3.8 0.0 0.0
03:07 15.9 12.5 80 1015.8 3.8 S 3.8 0.0 0.0
03:08 15.9 12.5 80 1015.8 3.8 SW 3.8 0.0 0.0
03:09 15.9 12.5 80 1015.8 4.5 WSW 4.5 0.0 0.0
03:10 15.9 12.5 80 1015.6 3.8 W 4.5 0.0 0.0
03:11 15.9 12.5 80 1015.7 4.5 W 4.5 0.0 0.0
03:12 15.9 12.5 80 1015.5 3.8 SW 4.5 0.0 0.0
03:13 15.9 12.5 80 1015.8 3.8 SW 4.5 0.0 0.0
03:14 15.9 12.5 80 1015.7 3.8 W 4.5 0.0 0.0
03:15 15.9 12.5 80 1015.7 3.8 W 4.5 0.0 0.0
03:16 15.9 12.5 80 1015.5 3.8 SW 4.5 0.0 0.0
03:17 15.9 12.5 80 1015.6 2.2 W 4.5 0.0 0.0
03:18 15.9 12.5 80 1015.8 5.4 SW 5.4 0.0 0.0
03:19 15.9 12.5 80 1015.7 2.2 SW 5.4 0.0 0.0
03:20 15.9 12.5 80 1015.7 3.1 W 5.4 0.0 0.0
03:21 15.9 12.5 80 1015.6 2.2 W 5.4 0.0 0.0
03:22 15.9 12.5 80 1015.7 3.1 W 5.4 0.0 0.0
03:23 15.9 12.5 80 1015.6 2.2 NW 5.4 0.0 0.0
03:24 15.9 12.5 80 1015.5 1.6 W 5.4 0.0 0.0
03:25 15.9 12.5 80 1015.6 3.1 W 5.4 0.0 0.0
03:26 15.9 12.5 80 1015.6 3.1 NW 5.4 0.0 0.0
03:27 15.9 12.5 80 1015.5 3.8 NW 6.0 0.0 0.0
03:28 15.9 12.5 80 1015.6 2.2 NW 6.0 0.0 0.0
03:29 15.9 12.5 80 1015.6 3.8 W 6.0 0.0 0.0
03:30 15.8 12.4 80 1015.5 3.1 NW 6.0 0.0 0.0
03:31 15.9 12.5 80 1015.4 2.2 N 6.0 0.0 0.0
03:32 15.8 12.4 80 1015.4 3.1 W 6.0 0.0 0.0
03:33 15.8 12.4 80 1015.6 2.2 W 6.0 0.0 0.0
03:34 15.8 12.4 80 1015.5 3.1 W 6.0 0.0 0.0
03:35 15.8 12.4 80 1015.6 2.2 W 6.0 0.0 0.0
03:36 15.7 12.3 80 1015.4 1.6 W 6.0 0.0 0.0
03:37 15.7 12.3 80 1015.5 0.0 NW 3.8 0.0 0.0
03:38 15.7 12.3 80 1015.5 0.0 NW 3.8 0.0 0.0
03:39 15.7 12.3 80 1015.4 0.0 W 3.8 0.0 0.0
03:40 15.7 12.3 80 1015.5 0.0 W 3.1 0.0 0.0
03:41 15.7 12.3 80 1015.5 0.0 SW 3.1 0.0 0.0
03:42 15.7 12.3 80 1015.3 0.0 W 3.1 0.0 0.0
03:43 15.7 12.3 80 1015.5 0.0 W 3.1 0.0 0.0
03:44 15.7 12.3 80 1015.5 0.0 SW 3.1 0.0 0.0
03:45 15.7 12.3 80 1015.4 0.0 NE 2.2 0.0 0.0
03:46 15.6 12.2 80 1015.4 0.0 W 1.6 0.0 0.0
03:47 15.6 12.2 80 1015.4 0.0 W 0.0 0.0 0.0
03:48 15.6 12.2 80 1015.3 0.0 SW 0.0 0.0 0.0
03:49 15.6 12.2 80 1015.4 0.0 W 0.0 0.0 0.0
03:50 15.6 12.2 80 1015.4 0.0 W 0.0 0.0 0.0
03:51 15.6 12.2 80 1015.4 0.0 W 0.0 0.0 0.0
03:52 15.6 12.2 80 1015.4 0.0 W 0.0 0.0 0.0
03:53 15.6 12.2 80 1015.4 0.0 W 0.0 0.0 0.0
03:54 15.6 12.2 80 1015.2 0.0 W 0.0 0.0 0.0
03:55 15.6 12.2 80 1015.3 0.0 W 0.0 0.0 0.0
03:56 15.5 12.1 80 1015.2 0.0 SW 0.0 0.0 0.0
03:57 15.5 12.1 80 1015.2 0.0 SW 0.0 0.0 0.0
03:58 15.6 12.2 80 1015.1 0.0 NW 0.0 0.0 0.0
03:59 15.5 12.1 80 1015.2 0.0 NW 0.0 0.0 0.0
04:00 15.5 12.1 80 1015.2 0.0 NW 0.0 0.0 0.0
04:01 15.5 12.1 80 1015.2 0.0 NW 0.0 0.0 0.0
04:02 15.5 12.1 80 1015.1 0.0 NW 0.0 0.0 0.0
04:03 15.5 12.1 80 1015.3 0.0 NW 0.0 0.0 0.0
04:04 15.5 12.1 80 1015.3 0.0 NW 0.0 0.0 0.0
04:05 15.5 12.1 80 1015.2 0.0 W 0.0 0.0 0.0
04:06 15.5 12.1 80 1015.2 0.0 W 0.0 0.0 0.0
04:07 15.5 12.1 80 1015.3 0.0 SW 0.0 0.0 0.0
04:08 15.5 12.1 80 1015.2 0.0 SW 0.0 0.0 0.0
04:09 15.5 12.3 81 1015.3 0.0 SW 0.0 0.0 0.0
04:10 15.5 12.1 80 1015.0 0.7 SW 0.7 0.0 0.0
04:11 15.5 12.3 81 1015.2 0.0 SW 0.7 0.0 0.0
04:12 15.5 12.3 81 1015.0 0.0 SW 0.7 0.0 0.0
04:13 15.5 12.1 80 1015.0 0.0 SW 0.7 0.0 0.0
04:14 15.5 12.3 81 1015.1 0.0 SW 0.7 0.0 0.0
04:15 15.5 12.3 81 1015.1 0.0 SW 0.7 0.0 0.0
04:17 15.5 12.1 80 1015.2 0.0 SW 0.7 0.0 0.0
04:18 15.5 12.1 80 1015.0 0.0 SW 0.7 0.0 0.0
04:19 15.5 12.1 80 1015.1 0.0 SW 0.7 0.0 0.0
04:20 15.5 12.3 81 1015.0 0.0 SW 0.0 0.0 0.0
04:21 15.5 12.1 80 1015.0 0.0 SW 0.0 0.0 0.0
04:22 15.5 12.1 80 1014.9 0.0 SW 0.0 0.0 0.0
04:23 15.5 12.3 81 1015.0 0.0 SW 0.0 0.0 0.0
04:24 15.5 12.1 80 1015.1 0.0 SE 0.0 0.0 0.0
04:25 15.5 12.1 80 1015.1 0.0 SE 0.0 0.0 0.0
04:26 15.5 12.1 80 1015.1 0.0 SE 0.0 0.0 0.0
04:27 15.5 12.1 80 1015.0 0.0 SE 0.0 0.0 0.0
04:28 15.4 12.0 80 1015.1 0.0 SE 0.0 0.0 0.0
04:29 15.4 12.0 80 1015.0 0.0 SE 0.0 0.0 0.0
04:30 15.4 12.0 80 1014.9 0.0 SE 0.0 0.0 0.0
04:31 15.4 12.0 80 1015.0 0.0 SE 0.0 0.0 0.0
04:32 15.4 12.0 80 1015.0 0.0 SE 0.0 0.0 0.0
04:33 15.4 12.0 80 1015.0 0.0 SE 0.0 0.0 0.0
04:34 15.4 12.0 80 1015.0 0.0 SE 0.0 0.0 0.0
04:35 15.4 12.0 80 1014.9 0.0 SE 0.0 0.0 0.0
04:36 15.4 12.0 80 1014.9 0.0 SE 0.0 0.0 0.0
04:37 15.4 12.0 80 1014.9 0.0 SE 0.0 0.0 0.0
04:38 15.4 12.0 80 1015.0 0.0 SE 0.0 0.0 0.0
04:39 15.4 12.0 80 1014.9 0.0 SE 0.0 0.0 0.0
04:40 15.4 12.0 80 1015.0 0.0 SE 0.0 0.0 0.0
04:41 15.4 12.0 80 1014.9 0.0 SE 0.0 0.0 0.0
04:42 15.4 12.0 80 1014.9 0.0 SE 0.0 0.0 0.0
04:43 15.4 12.0 80 1015.0 0.0 SE 0.0 0.0 0.0
04:44 15.3 11.9 80 1015.0 0.0 SE 0.0 0.0 0.0
04:45 15.3 11.9 80 1015.0 0.0 SE 0.0 0.0 0.0
04:46 15.3 11.9 80 1015.0 0.0 SE 0.0 0.0 0.0
04:47 15.3 11.9 80 1015.0 0.0 SE 0.0 0.0 0.0
04:48 15.3 11.9 80 1014.8 0.0 SE 0.0 0.0 0.0
04:49 15.3 11.9 80 1015.0 0.0 SE 0.0 0.0 0.0
04:50 15.3 11.9 80 1015.0 0.0 SE 0.0 0.0 0.0
04:51 15.3 11.9 80 1015.0 0.0 SE 0.0 0.0 0.0
04:52 15.3 11.9 80 1015.0 0.0 SE 0.0 0.0 0.0
04:53 15.3 11.9 80 1014.9 0.0 SE 0.0 0.0 0.0
04:54 15.3 11.9 80 1015.0 0.0 SE 0.0 0.0 0.0
04:55 15.3 11.9 80 1015.0 0.0 SE 0.0 0.0 0.0
04:56 15.3 11.9 80 1015.1 0.0 SE 0.0 0.0 0.0
04:57 15.3 11.9 80 1015.1 0.0 SE 0.0 0.0 0.0
04:58 15.3 11.9 80 1015.1 0.0 SE 0.0 0.0 0.0
04:59 15.2 11.8 80 1015.0 0.0 SE 0.0 0.0 0.0
05:00 15.2 11.8 80 1015.0 0.0 SE 0.0 0.0 0.0
05:01 15.2 11.8 80 1015.0 0.0 SE 0.0 0.0 0.0
05:02 15.2 11.8 80 1015.0 0.0 SE 0.0 0.0 0.0
05:03 15.2 11.8 80 1015.0 0.0 SE 0.0 0.0 0.0
05:04 15.2 11.8 80 1015.0 0.0 SE 0.0 0.0 0.0
05:05 15.2 11.8 80 1015.0 0.0 SE 0.0 0.0 0.0
05:06 15.1 11.7 80 1014.9 0.0 SE 0.0 0.8 0.1
05:07 15.1 11.7 80 1015.0 0.0 SE 0.0 0.8 0.1
05:08 15.1 11.7 80 1015.0 0.0 SE 0.0 0.8 0.1
05:09 15.1 11.7 80 1014.9 0.0 SE 0.0 0.8 0.1
05:10 15.1 11.7 80 1015.0 0.0 SE 0.0 0.8 0.1
05:11 15.1 11.7 80 1014.9 0.0 SE 0.0 0.0 0.1
05:12 15.1 11.7 80 1015.0 0.0 SE 0.0 0.0 0.1
05:13 15.1 11.7 80 1014.9 0.0 SE 0.0 0.0 0.1
05:14 15.1 11.7 80 1015.0 0.0 SE 0.0 0.0 0.1
05:15 15.1 11.7 80 1015.0 0.0 SE 0.0 0.0 0.1
05:16 15.1 11.7 80 1015.0 0.0 SE 0.0 0.0 0.1
05:17 15.0 11.6 80 1014.9 0.0 SE 0.0 0.0 0.1
05:18 15.0 11.6 80 1014.9 0.0 SE 0.0 0.0 0.1
05:19 15.0 11.6 80 1014.9 0.0 SE 0.0 0.0 0.1
05:20 15.0 11.6 80 1015.0 0.0 SE 0.0 0.0 0.1
05:21 15.0 11.6 80 1015.0 0.0 SE 0.0 0.0 0.1
05:22 15.0 11.6 80 1014.8 0.0 SE 0.0 0.0 0.1
05:23 15.0 11.6 80 1014.9 0.0 SE 0.0 0.0 0.1
05:24 15.0 11.6 80 1015.0 0.0 SE 0.0 0.0 0.1
05:25 15.0 11.6 80 1015.0 0.0 SE 0.0 0.0 0.1
05:26 15.0 11.6 80 1014.9 0.0 SE 0.0 0.0 0.1
05:27 14.9 11.5 80 1015.0 0.0 SE 0.0 0.0 0.1
05:28 14.9 11.5 80 1015.0 0.0 SE 0.0 0.0 0.1
05:29 14.9 11.5 80 1014.8 0.0 NE 0.0 0.0 0.1
05:30 14.9 11.3 79 1015.0 0.0 NE 0.0 0.0 0.1
05:31 14.9 11.5 80 1014.9 0.0 N 0.0 0.0 0.1
05:32 14.9 11.3 79 1015.0 0.0 N 0.0 0.0 0.1
05:33 14.9 11.3 79 1014.9 0.0 N 0.0 0.0 0.1
05:35 14.8 11.4 80 1015.0 0.0 N 0.0 0.0 0.1
05:36 14.8 11.2 79 1015.0 0.0 N 0.0 0.0 0.1
05:37 14.8 11.2 79 1014.9 0.0 N 0.0 0.0 0.1
05:38 14.8 11.2 79 1015.0 0.0 N 0.0 0.0 0.1
05:39 14.8 11.2 79 1014.9 0.0 NE 0.0 0.0 0.1
05:40 14.7 11.1 79 1015.0 0.0 NE 0.0 0.0 0.1
05:41 14.7 11.1 79 1015.0 0.0 NE 0.0 0.0 0.1
05:42 14.8 11.2 79 1015.0 0.0 NE 0.0 0.0 0.1
05:43 14.7 11.1 79 1015.0 0.0 NE 0.0 0.0 0.1
05:44 14.7 11.1 79 1015.0 0.0 NE 0.0 0.0 0.1
05:45 14.7 11.1 79 1015.0 0.0 NE 0.0 0.0 0.1
05:46 14.7 11.1 79 1014.9 0.0 NE 0.0 0.0 0.1
05:47 14.7 11.1 79 1015.0 0.0 N 0.0 0.0 0.1
05:48 14.7 11.1 79 1014.8 0.0 N 0.0 0.0 0.1
05:50 14.6 11.0 79 1014.8 0.0 N 0.0 0.0 0.1
05:51 14.6 11.0 79 1014.8 0.0 N 0.0 0.0 0.1
05:52 14.5 10.9 79 1014.8 0.0 N 0.0 0.0 0.1
05:53 14.5 10.9 79 1014.9 0.0 N 0.0 0.0 0.1
05:54 14.5 10.9 79 1014.6 0.0 N 0.0 0.0 0.1
05:55 14.5 10.9 79 1014.9 0.0 N 0.0 0.0 0.1
05:56 14.4 10.8 79 1014.8 0.0 N 0.0 0.0 0.1
05:57 14.4 10.8 79 1014.9 0.0 N 0.0 0.0 0.1
05:58 14.4 10.8 79 1014.9 0.0 N 0.0 0.0 0.1
05:59 14.3 10.7 79 1014.9 0.0 N 0.0 0.0 0.1
06:00 14.3 10.7 79 1014.8 0.0 N 0.0 0.0 0.1
06:01 14.3 10.7 79 1014.7 0.0 N 0.0 0.0 0.1
06:02 14.3 10.7 79 1014.8 0.0 N 0.0 0.0 0.1
06:03 14.3 10.7 79 1014.9 0.0 N 0.0 0.0 0.1
06:04 14.3 10.7 79 1015.0 0.0 N 0.0 0.0 0.1
06:05 14.2 10.6 79 1014.9 0.0 NE 0.0 0.0 0.1
06:06 14.3 10.7 79 1014.9 0.0 NE 0.0 0.0 0.1
06:07 14.3 10.7 79 1014.9 0.0 NE 0.0 0.0 0.1
06:08 14.3 10.7 79 1014.8 0.0 NE 0.0 0.0 0.1
06:09 14.3 10.7 79 1014.9 0.0 NE 0.0 0.0 0.1
06:10 14.3 10.7 79 1014.8 0.0 N 0.0 0.0 0.1
06:11 14.3 10.7 79 1014.9 0.0 N 0.0 0.0 0.1
06:12 14.3 10.7 79 1014.8 0.0 N 0.0 0.0 0.1
06:13 14.4 11.0 80 1014.9 0.0 N 0.0 0.0 0.1
06:14 14.4 10.8 79 1014.8 0.0 N 0.0 0.0 0.1
06:15 14.4 11.0 80 1014.8 0.0 N 0.0 0.0 0.1
06:16 14.4 11.0 80 1014.7 0.0 N 0.0 0.0 0.1
06:17 14.4 11.0 80 1015.0 0.0 N 0.0 0.0 0.1
06:18 14.4 11.0 80 1014.9 0.0 N 0.0 0.0 0.1
06:19 14.4 11.0 80 1015.0 0.0 N 0.0 0.0 0.1
06:20 14.5 11.1 80 1015.0 0.0 N 0.0 0.0 0.1
06:21 14.5 11.1 80 1015.0 0.0 N 0.0 0.0 0.1
06:22 14.5 11.1 80 1014.9 0.0 N 0.0 0.0 0.1
06:23 14.5 11.1 80 1015.0 0.0 N 0.0 0.0 0.1
06:24 14.5 11.1 80 1014.9 0.0 N 0.0 0.0 0.1
06:25 14.5 11.1 80 1015.0 0.0 N 0.0 0.0 0.1
06:26 14.5 11.1 80 1014.9 0.0 N 0.0 0.0 0.1
06:27 14.6 11.2 80 1014.9 0.0 N 0.0 0.0 0.1
06:28 14.6 11.2 80 1014.9 0.0 N 0.0 0.0 0.1
06:29 14.6 11.2 80 1014.9 0.0 N 0.0 0.0 0.1
06:30 14.6 11.2 80 1015.0 0.0 N 0.0 0.0 0.1
06:31 14.6 11.2 80 1014.9 0.0 N 0.0 0.0 0.1
06:32 14.7 11.3 80 1014.8 0.0 NE 0.0 0.0 0.1
06:34 14.8 11.4 80 1014.9 0.0 NE 0.0 0.0 0.1
06:35 14.8 11.4 80 1015.0 0.0 NE 0.0 0.0 0.1
06:36 14.8 11.4 80 1014.8 0.0 NE 0.0 0.0 0.1
06:37 14.8 11.4 80 1014.8 0.0 NE 0.0 0.0 0.1
06:38 14.8 11.4 80 1015.0 0.0 NE 0.0 0.0 0.1
06:39 14.8 11.4 80 1015.0 0.0 NE 0.0 0.0 0.1
06:40 14.9 11.5 80 1014.8 0.0 NE 0.0 0.0 0.1
06:41 14.9 11.5 80 1014.9 0.0 NE 0.0 0.0 0.1
06:42 14.9 11.5 80 1015.0 0.0 NE 0.0 0.0 0.1
06:43 14.9 11.7 81 1014.9 0.0 NE 0.0 0.0 0.1
06:44 15.0 11.8 81 1014.9 0.0 NE 0.0 0.0 0.1
06:45 15.0 11.6 80 1014.7 0.0 NE 0.0 0.0 0.1
06:46 15.0 11.8 81 1014.8 0.0 NE 0.0 0.0 0.1
06:48 15.0 11.8 81 1014.8 0.0 NE 0.0 0.0 0.1
06:49 15.0 11.8 81 1014.8 0.0 NE 0.0 0.0 0.1
06:50 15.0 11.8 81 1014.8 0.0 NE 0.0 0.0 0.1
06:51 15.0 11.8 81 1014.9 0.0 NE 0.0 0.0 0.1
06:52 15.1 11.9 81 1015.0 0.0 NE 0.0 0.0 0.1
06:53 15.1 11.9 81 1014.8 0.0 NE 0.0 0.0 0.1
06:54 15.1 11.9 81 1014.8 0.0 NE 0.0 0.0 0.1
06:55 15.1 11.9 81 1014.9 0.0 NE 0.0 0.0 0.1
06:56 15.2 12.0 81 1014.8 0.0 NE 0.0 0.0 0.1
06:57 15.2 12.0 81 1014.7 0.0 NE 0.0 0.0 0.1
06:58 15.2 12.0 81 1014.9 0.0 NE 0.0 0.0 0.1
06:59 15.3 12.1 81 1014.9 0.0 NE 0.0 0.0 0.1
07:00 15.3 12.1 81 1014.9 0.0 NE 0.0 0.0 0.1
07:01 15.3 12.1 81 1014.9 0.0 NE 0.0 0.0 0.1
07:02 15.4 12.2 81 1014.8 0.0 NE 0.0 0.0 0.1
07:04 15.4 12.2 81 1014.9 0.0 NE 0.0 0.0 0.1
07:05 15.5 12.3 81 1014.9 0.0 NE 0.0 0.0 0.1
07:06 15.5 12.3 81 1014.8 0.0 NE 0.0 0.0 0.1
07:07 15.5 12.3 81 1014.8 0.0 NE 0.0 0.0 0.1
07:08 15.5 12.3 81 1014.7 0.0 NE 0.0 0.0 0.1
07:09 15.6 12.4 81 1014.8 0.0 NE 0.0 0.0 0.1
07:10 15.6 12.5 82 1014.7 0.0 NE 0.0 0.0 0.1
07:11 15.6 12.4 81 1014.9 0.0 NE 0.0 0.0 0.1
07:12 15.6 12.5 82 1014.8 0.0 NE 0.0 0.0 0.1
07:13 15.6 12.5 82 1014.8 0.0 NE 0.0 0.0 0.1
07:14 15.7 12.6 82 1014.9 0.0 NE 0.0 0.0 0.1
07:15 15.7 12.6 82 1014.7 0.0 NE 0.0 0.0 0.1
07:16 15.7 12.6 82 1014.6 0.0 NE 0.0 0.0 0.1
07:18 15.8 12.7 82 1014.8 0.0 SE 0.0 0.0 0.1
07:19 15.8 12.7 82 1014.8 0.0 SE 0.0 0.0 0.1
07:20 15.8 12.7 82 1014.8 0.0 SE 0.0 0.0 0.1
07:21 15.9 12.8 82 1014.8 0.0 SE 0.0 0.0 0.1
07:22 15.9 12.8 82 1014.7 0.0 SE 0.0 0.0 0.1
07:23 15.9 12.8 82 1014.9 0.0 SE 0.0 0.0 0.1
07:24 15.9 12.8 82 1014.9 0.0 SE 0.0 0.0 0.1
07:25 16.0 12.9 82 1014.8 0.0 SE 0.0 0.0 0.1
07:26 16.0 12.9 82 1014.7 0.0 SE 0.0 0.0 0.1
07:27 16.0 12.9 82 1015.0 0.0 SE 0.0 0.0 0.1
07:28 16.0 12.9 82 1015.0 0.0 S 0.0 0.0 0.1
07:29 16.0 12.9 82 1015.0 0.0 S 0.0 0.0 0.1
07:30 16.1 13.0 82 1014.9 0.0 S 0.0 0.0 0.1
07:31 16.1 13.0 82 1014.8 0.0 S 0.0 0.0 0.1
07:33 16.2 13.1 82 1015.0 0.0 S 0.0 0.0 0.1
07:34 16.2 13.1 82 1015.0 0.0 S 0.0 0.0 0.1
07:35 16.2 13.1 82 1015.0 0.0 S 0.0 0.0 0.1
07:36 16.2 13.1 82 1015.0 0.0 S 0.0 0.0 0.1
07:37 16.2 13.1 82 1015.0 0.0 S 0.0 0.0 0.1
07:38 16.3 13.2 82 1015.0 0.0 SW 0.0 0.0 0.1
07:39 16.3 13.2 82 1015.0 0.0 SW 0.0 0.0 0.1
07:40 16.3 13.2 82 1015.1 0.0 SW 0.0 0.0 0.1
07:41 16.3 13.2 82 1015.0 0.0 SW 0.0 0.0 0.1
07:42 16.4 13.3 82 1015.1 0.0 SW 0.0 0.0 0.1
07:43 16.4 13.3 82 1015.0 0.0 SW 0.0 0.0 0.1
07:44 16.4 13.3 82 1015.0 0.0 W 0.0 0.0 0.1
07:45 16.4 13.3 82 1015.1 0.0 W 0.0 0.0 0.1
07:46 16.4 13.3 82 1015.0 0.0 W 0.0 0.0 0.1
07:48 16.5 13.4 82 1015.1 0.0 S 0.0 0.0 0.1
07:49 16.5 13.2 81 1015.0 0.0 SW 0.0 0.0 0.1
07:50 16.5 13.2 81 1015.0 0.0 SW 0.0 0.0 0.1
07:51 16.5 13.2 81 1015.0 0.0 S 0.0 0.0 0.1
07:52 16.6 13.3 81 1015.1 0.7 S 0.7 0.0 0.1
07:53 16.6 13.3 81 1015.1 0.7 W 0.7 0.0 0.1
07:54 16.6 13.3 81 1015.1 0.7 W 0.7 0.0 0.1
07:55 16.6 13.3 81 1015.3 3.8 S 3.8 0.0 0.1
07:56 16.6 13.3 81 1015.1 3.1 SW 3.8 0.0 0.1
07:57 16.6 13.3 81 1015.2 3.8 SW 3.8 0.0 0.1
07:58 16.7 13.4 81 1015.1 4.5 SW 4.5 0.0 0.1
07:59 16.7 13.4 81 1015.2 5.4 SW 5.4 0.0 0.1
08:00 16.7 13.4 81 1015.2 2.2 SW 5.4 0.0 0.1
08:01 16.7 13.4 81 1015.3 2.2 SW 5.4 0.0 0.1
08:02 16.7 13.4 81 1015.1 2.2 SW 5.4 0.0 0.1
08:03 16.7 13.4 81 1015.1 2.2 SW 5.4 0.0 0.1
08:05 16.8 13.5 81 1015.1 3.8 W 5.4 0.0 0.1
08:06 16.8 13.5 81 1015.3 5.4 S 5.4 0.0 0.1
08:07 16.8 13.5 81 1015.2 3.8 SW 5.4 0.0 0.1
08:08 16.8 13.5 81 1015.1 2.2 SE 5.4 0.0 0.1
08:09 16.8 13.5 81 1014.9 3.1 SW 5.4 0.0 0.1
08:10 16.8 13.5 81 1015.1 3.1 SW 5.4 0.0 0.1
08:11 16.8 13.5 81 1015.1 3.1 SW 5.4 0.0 0.1
08:12 16.8 13.5 81 1015.1 4.5 SW 5.4 0.0 0.1
08:13 16.8 13.5 81 1015.1 3.8 NW 5.4 0.0 0.1
08:14 16.8 13.5 81 1015.3 3.1 S 5.4 0.0 0.1
08:15 16.8 13.5 81 1015.1 4.5 SW 5.4 0.0 0.1
08:16 16.8 13.5 81 1015.2 4.5 SW 5.4 0.0 0.1
08:17 16.8 13.5 81 1015.2 3.1 S 4.5 0.0 0.1
08:18 16.8 13.5 81 1015.0 3.8 SW 4.5 0.0 0.1
08:19 16.8 13.5 81 1015.1 3.8 SW 4.5 0.0 0.1
08:21 16.8 13.5 81 1015.2 3.1 W 6.0 0.0 0.1
08:22 16.8 13.5 81 1015.1 3.8 SW 6.0 0.0 0.1
08:23 16.9 13.6 81 1015.1 5.4 SW 6.0 0.0 0.1
08:24 16.9 13.4 80 1015.1 3.1 SW 6.0 0.0 0.1
08:25 16.9 13.4 80 1015.0 5.4 S 6.0 0.0 0.1
08:26 16.9 13.4 80 1015.0 5.4 SW 6.0 0.0 0.1
08:27 16.9 13.4 80 1015.1 3.8 SE 6.0 0.0 0.1
08:28 16.9 13.4 80 1015.2 4.5 SW 6.0 0.0 0.1
08:29 16.9 13.4 80 1015.0 5.4 S 6.0 0.0 0.1
08:30 16.9 13.4 80 1015.1 3.8 SW 6.0 0.0 0.1
08:31 17.0 13.5 80 1015.1 7.6 S 7.6 0.0 0.1
08:32 17.0 13.5 80 1015.3 4.5 SW 7.6 0.0 0.1
08:33 17.0 13.5 80 1015.2 3.8 SW 7.6 0.0 0.1
08:34 17.1 13.6 80 1015.1 4.5 S 7.6 0.0 0.1
08:35 17.1 13.6 80 1015.1 6.9 S 7.6 0.0 0.1
08:37 17.2 13.7 80 1015.1 3.8 SW 7.6 0.0 0.1
08:38 17.2 13.7 80 1015.3 3.8 W 7.6 0.0 0.1
08:39 17.2 13.7 80 1015.2 3.1 SW 7.6 0.0 0.1
08:40 17.3 13.8 80 1015.2 3.8 S 7.6 0.0 0.1
08:41 17.3 13.8 80 1015.3 3.8 S 6.9 0.0 0.1
08:42 17.3 13.8 80 1015.3 3.8 S 6.9 0.0 0.1
08:43 17.3 13.8 80 1015.4 5.4 S 6.9 0.0 0.1
08:44 17.3 13.8 80 1015.3 4.5 W 6.9 0.0 0.1
08:45 17.3 13.8 80 1015.2 5.4 S 6.9 0.0 0.1
08:46 17.3 13.8 80 1015.0 4.5 W 5.4 0.0 0.1
08:47 17.4 13.9 80 1015.2 3.8 SW 5.4 0.0 0.1
08:48 17.3 13.8 80 1015.1 3.1 W 5.4 0.0 0.1
08:49 17.4 13.7 79 1015.3 4.5 S 5.4 0.0 0.1
08:50 17.4 13.7 79 1015.2 4.5 W 5.4 0.0 0.1
08:51 17.4 13.7 79 1015.1 4.5 W 5.4 0.0 0.1
08:52 17.4 13.7 79 1015.1 4.5 W 5.4 0.0 0.1
08:53 17.4 13.7 79 1015.3 4.5 W 5.4 0.0 0.1
08:54 17.5 13.8 79 1015.2 3.8 W 5.4 0.0 0.1
08:55 17.5 13.8 79 1015.1 3.1 W 5.4 0.0 0.1
08:56 17.6 13.9 79 1015.1 3.1 SW 5.4 0.0 0.1
08:58 17.7 14.0 79 1015.2 3.1 S 5.4 0.0 0.1
08:59 17.7 14.0 79 1015.2 2.2 SW 5.4 0.0 0.1
09:00 17.7 14.0 79 1015.3 3.1 SW 5.4 0.0 0.1
09:01 17.8 14.1 79 1015.2 5.4 SE 5.4 0.0 0.1
09:02 17.8 14.1 79 1015.1 4.5 SE 5.4 0.0 0.1
09:03 17.8 14.1 79 1015.2 3.8 WSW 5.4 0.0 0.1
09:04 17.9 14.0 78 1015.2 5.4 SW 5.4 0.0 0.1
09:05 17.9 14.0 78 1015.2 5.4 SW 5.4 0.0 0.1
09:06 17.9 14.0 78 1015.2 5.4 SW 5.4 0.0 0.1
09:07 17.9 14.0 78 1015.2 6.0 NW 6.0 0.0 0.1
09:08 17.9 14.0 78 1015.2 6.9 SW 6.9 0.0 0.1
09:09 17.9 14.0 78 1015.2 5.4 W 6.9 0.0 0.1
09:10 17.9 14.0 78 1015.2 5.4 W 6.9 0.0 0.1
09:11 17.9 14.0 78 1015.3 4.5 SW 6.9 0.0 0.1
09:12 17.9 13.8 77 1015.1 5.4 SW 6.9 0.0 0.1
09:13 17.9 13.8 77 1015.2 4.5 W 6.9 0.0 0.1
09:14 17.9 13.8 77 1015.1 3.8 WSW 6.9 0.0 0.1
09:15 17.9 13.8 77 1015.3 3.8 SW 6.9 0.0 0.1
09:16 17.9 13.8 77 1015.2 3.8 W 6.9 0.0 0.1
09:18 18.0 13.9 77 1015.2 3.1 W 5.4 0.0 0.1
09:19 18.0 13.9 77 1015.2 5.4 S 5.4 0.0 0.1
09:20 18.1 14.0 77 1015.3 4.5 SW 5.4 0.0 0.1
09:21 18.2 14.1 77 1015.2 3.8 S 5.4 0.0 0.1
09:22 18.2 14.1 77 1015.3 4.5 SW 5.4 0.0 0.1
09:23 18.2 13.9 76 1015.3 4.5 S 5.4 0.0 0.1
09:24 18.3 14.0 76 1015.3 6.0 SW 6.0 0.0 0.1
09:25 18.3 14.0 76 1015.3 3.8 S 6.0 0.0 0.1
09:26 18.3 14.0 76 1015.3 3.8 S 6.0 0.0 0.1
09:27 18.4 14.1 76 1015.3 5.4 S 6.0 0.0 0.1
09:28 18.4 14.1 76 1015.4 5.4 SSE 6.0 0.0 0.1
09:29 18.4 14.1 76 1015.4 6.0 SW 6.0 0.0 0.1
09:30 18.4 14.1 76 1015.4 3.8 SW 6.0 0.0 0.1
09:31 18.5 14.2 76 1015.2 3.8 SW 6.0 0.0 0.1
09:32 18.5 14.0 75 1015.2 4.5 SW 6.0 0.0 0.1
09:33 18.5 14.0 75 1015.4 6.0 S 6.0 0.0 0.1
09:34 18.5 14.0 75 1015.3 5.4 SW 6.0 0.0 0.1
09:36 18.6 14.1 75 1015.2 4.5 SE 6.0 0.0 0.1
09:37 18.6 14.1 75 1015.3 3.8 S 6.0 0.0 0.1
09:38 18.7 14.2 75 1015.4 8.3 SW 8.3 0.0 0.1
09:39 18.7 14.0 74 1015.2 6.0 SW 8.3 0.0 0.1
09:40 18.7 14.0 74 1015.3 7.6 N 8.3 0.0 0.1
09:41 18.7 14.0 74 1015.4 5.4 SE 8.3 0.0 0.1
09:42 18.7 14.0 74 1015.3 6.9 NE 8.3 0.0 0.1
09:43 18.7 14.0 74 1015.4 4.5 S 8.3 0.0 0.1
09:44 18.7 14.0 74 1015.3 5.4 SW 8.3 0.0 0.1
09:46 18.7 14.0 74 1015.3 6.0 WSW 8.3 0.0 0.1
09:47 18.7 14.0 74 1015.2 6.9 SW 8.3 0.0 0.1
09:48 18.8 14.1 74 1015.2 4.5 SE 7.6 0.0 0.1
09:49 18.9 14.2 74 1015.5 4.5 SW 7.6 0.0 0.1
09:51 19.0 14.1 73 1015.3 6.0 S 8.3 0.0 0.1
09:52 19.0 14.1 73 1015.1 3.8 S 8.3 0.0 0.1
09:53 19.1 14.2 73 1015.1 2.2 SE 8.3 0.0 0.1
09:54 19.1 14.2 73 1015.1 4.5 W 8.3 0.0 0.1
09:55 19.2 14.3 73 1015.1 3.8 SW 8.3 0.0 0.1
09:56 19.2 14.0 72 1015.2 5.4 SW 8.3 0.0 0.1
09:57 19.3 14.1 72 1015.2 6.9 S 8.3 0.0 0.1
09:58 19.3 14.1 72 1015.2 3.8 SW 8.3 0.0 0.1
09:59 19.3 14.1 72 1015.2 3.1 SE 8.3 0.0 0.1
10:00 19.3 13.9 71 1015.0 4.5 SW 8.3 0.0 0.1
10:01 19.3 13.9 71 1015.2 4.5 SW 6.9 0.0 0.1
10:02 19.3 13.9 71 1015.1 4.5 SW 6.9 0.0 0.1
10:03 19.3 13.9 71 1015.1 4.5 SW 6.9 0.0 0.1
10:04 19.3 13.9 71 1015.0 4.5 SW 6.9 0.0 0.1
10:06 19.5 14.1 71 1015.0 3.1 SW 6.9 0.0 0.1
10:07 19.5 13.9 70 1015.1 4.5 S 6.0 0.0 0.1
10:08 19.5 13.9 70 1015.1 6.0 S 6.0 0.0 0.1
10:09 19.5 13.9 70 1015.2 4.5 SE 6.0 0.0 0.1
10:10 19.5 13.9 70 1015.1 5.4 S 6.0 0.0 0.1
10:11 19.5 13.9 70 1015.1 5.4 S 6.0 0.0 0.1
10:12 19.5 13.9 70 1014.9 6.0 SW 6.0 0.0 0.1
10:13 19.5 13.9 70 1015.1 6.0 SE 6.0 0.0 0.1
10:14 19.5 13.9 70 1014.9 8.3 S 8.3 0.0 0.1
10:15 19.5 13.9 70 1015.0 6.9 SW 8.3 0.0 0.1
10:16 19.5 13.9 70 1015.0 4.5 SW 8.3 0.0 0.1
10:17 19.6 14.0 70 1015.0 7.6 SSW 8.3 0.0 0.1
10:18 19.7 13.9 69 1015.1 8.3 SE 8.3 0.0 0.1
10:19 19.7 13.9 69 1015.1 6.9 S 8.3 0.0 0.1
10:20 19.7 13.9 69 1015.0 9.2 S 9.2 0.0 0.1
10:21 19.7 13.9 69 1015.1 6.9 SW 9.2 0.0 0.1
10:22 19.7 13.9 69 1015.1 6.0 S 9.2 0.0 0.1
10:23 19.7 13.9 69 1015.0 6.0 SE 9.2 0.0 0.1
10:25 19.8 13.7 68 1015.2 7.6 S 9.2 0.0 0.1
10:26 19.8 13.7 68 1015.1 8.3 SW 9.2 0.0 0.1
10:27 19.8 13.7 68 1015.2 8.3 SW 9.2 0.0 0.1
10:28 19.8 13.7 68 1015.2 6.9 S 9.2 0.0 0.1
10:29 19.9 13.8 68 1015.1 6.0 SSW 9.2 0.0 0.1
10:30 19.9 13.8 68 1015.2 6.9 SE 9.2 0.0 0.1
10:31 19.9 13.8 68 1015.2 7.6 S 9.2 0.0 0.1
10:32 19.8 13.5 67 1015.2 6.0 SW 9.2 0.0 0.1
10:33 19.9 13.6 67 1015.2 6.9 SW 9.2 0.0 0.1
10:34 19.8 13.5 67 1015.2 4.5 SW 8.3 0.0 0.1
10:35 19.9 13.6 67 1015.2 3.8 E 8.3 0.0 0.1
10:36 19.9 13.6 67 1015.2 3.8 SE 8.3 0.0 0.1
10:37 20.0 13.9 68 1015.2 6.9 S 8.3 0.0 0.1
10:38 20.0 13.7 67 1015.2 8.3 SE 8.3 0.0 0.1
10:39 20.1 13.8 67 1015.2 9.2 SW 9.2 0.0 0.1
10:40 20.1 13.8 67 1015.2 4.5 SW 9.2 0.0 0.1
10:41 20.2 13.9 67 1015.2 5.4 S 9.2 0.0 0.1
10:42 20.3 14.0 67 1015.2 5.4 S 9.2 0.0 0.1
10:43 20.3 14.0 67 1015.2 8.3 S 9.2 0.0 0.1
10:44 20.4 14.1 67 1015.2 9.2 SSW 9.2 0.0 0.1
10:45 20.5 13.9 66 1015.2 6.9 S 9.2 0.0 0.1
10:47 20.5 13.9 66 1015.2 6.9 S 9.2 0.0 0.1
10:48 20.6 13.8 65 1015.3 8.3 SW 9.2 0.0 0.1
10:49 20.6 13.8 65 1015.2 6.0 SW 9.2 0.0 0.1
10:50 20.6 13.8 65 1015.1 4.5 SW 9.2 0.0 0.1
10:51 20.6 13.8 65 1015.3 6.9 SE 9.2 0.0 0.1
10:52 20.6 13.8 65 1015.4 5.4 S 9.2 0.0 0.1
10:53 20.6 13.8 65 1015.2 6.0 SE 9.2 0.0 0.1
10:54 20.6 13.6 64 1015.4 6.0 SE 9.2 0.0 0.1
10:55 20.5 13.5 64 1015.4 7.6 SW 8.3 0.0 0.1
10:56 20.5 13.5 64 1015.1 6.9 SW 8.3 0.0 0.1
10:57 20.5 13.2 63 1015.1 7.6 SW 8.3 0.0 0.1
10:58 20.5 13.2 63 1015.1 5.4 SW 8.3 0.0 0.1
10:59 20.4 13.1 63 1015.2 5.4 S 7.6 0.0 0.1
11:00 20.4 13.1 63 1015.2 6.9 SE 7.6 0.0 0.1
11:01 20.4 13.1 63 1015.5 6.9 SE 7.6 0.0 0.1
11:02 20.4 13.1 63 1015.2 6.9 SW 7.6 0.0 0.1
11:03 20.4 13.1 63 1015.2 6.0 SW 7.6 0.0 0.1
11:04 20.4 13.1 63 1015.4 8.3 SW 8.3 0.0 0.1
11:06 20.4 13.1 63 1015.1 5.4 SW 8.3 0.0 0.1
11:07 20.4 13.1 63 1015.2 6.0 SW 8.3 0.0 0.1
11:08 20.4 13.1 63 1015.2 8.3 SW 8.3 0.0 0.1
11:09 20.4 13.1 63 1015.4 6.0 SSE 8.3 0.0 0.1
11:10 20.4 13.1 63 1015.2 8.3 S 8.3 0.0 0.1
11:11 20.3 13.0 63 1015.3 6.9 SW 8.3 0.0 0.1
11:12 20.3 13.0 63 1015.2 6.0 SE 8.3 0.0 0.1
11:13 20.3 13.0 63 1015.4 6.9 S 8.3 0.0 0.1
11:14 20.3 13.0 63 1015.3 6.0 SE 8.3 0.0 0.1
11:15 20.3 13.0 63 1015.3 6.0 SW 8.3 0.0 0.1
11:16 20.3 13.0 63 1015.2 5.4 WSW 8.3 0.0 0.1
11:17 20.4 13.1 63 1015.2 6.0 ESE 8.3 0.0 0.1
11:18 20.4 13.1 63 1015.2 7.6 S 8.3 0.0 0.1
11:19 20.4 13.1 63 1015.3 7.6 SW 8.3 0.0 0.1
11:20 20.4 13.1 63 1015.4 5.4 SW 8.3 0.0 0.1
11:21 20.4 13.1 63 1015.3 6.0 S 7.6 0.0 0.1
11:22 20.4 13.1 63 1015.3 6.0 S 7.6 0.0 0.1
11:23 20.4 13.1 63 1015.3 5.4 SW 7.6 0.0 0.1
11:25 20.4 13.1 63 1015.2 9.8 SW 9.8 0.0 0.1
11:26 20.4 13.1 63 1015.2 9.2 S 9.8 0.0 0.1
11:27 20.4 12.9 62 1015.3 8.3 SW 9.8 0.0 0.1
11:28 20.4 12.9 62 1015.1 4.5 SW 9.8 0.0 0.1
11:29 20.4 12.9 62 1015.3 7.6 S 9.8 0.0 0.1
11:30 20.4 12.9 62 1015.3 6.9 SW 9.8 0.0 0.1
11:31 20.4 12.9 62 1015.3 9.2 SW 9.8 0.0 0.1
11:32 20.4 12.9 62 1015.2 9.2 S 9.8 0.0 0.1
11:33 20.3 12.8 62 1015.2 8.3 S 9.8 0.0 0.1
11:34 20.3 12.8 62 1015.2 7.6 S 9.8 0.0 0.1
11:35 20.4 12.9 62 1015.3 7.6 SW 9.8 0.0 0.1
11:36 20.4 12.9 62 1015.2 6.9 S 9.2 0.0 0.1
11:37 20.4 13.1 63 1015.2 9.2 NW 9.2 0.0 0.1
11:38 20.5 13.0 62 1015.3 6.0 SW 9.2 0.0 0.1
11:39 20.5 13.0 62 1015.2 6.0 S 9.2 0.0 0.1
11:40 20.5 13.0 62 1015.1 8.3 SW 9.2 0.0 0.1
11:41 20.6 13.1 62 1015.2 9.8 S 9.8 0.0 0.1
11:43 20.8 13.5 63 1015.1 9.8 SE 9.8 0.0 0.1
11:44 20.8 13.5 63 1015.1 9.8 S 9.8 0.0 0.1
11:45 20.9 13.6 63 1015.3 12.1 SW 12.1 0.0 0.1
11:46 20.9 13.6 63 1015.2 9.2 S 12.1 0.0 0.1
11:47 21.0 13.5 62 1015.2 8.3 S 12.1 0.0 0.1
11:48 21.0 13.5 62 1015.2 9.2 S 12.1 0.0 0.1
11:49 21.0 13.5 62 1015.1 8.3 S 12.1 0.0 0.1
11:50 21.0 13.5 62 1015.1 9.2 SE 12.1 0.0 0.1
11:51 21.1 13.5 62 1015.1 8.3 S 12.1 0.0 0.1
11:52 21.1 13.5 62 1015.3 9.2 S 12.1 0.0 0.1
11:53 21.1 13.3 61 1015.1 8.3 W 12.1 0.0 0.1
11:54 21.0 13.2 61 1015.2 8.3 S 12.1 0.0 0.1
11:55 21.0 13.2 61 1015.2 8.3 E 12.1 0.0 0.1
11:56 21.0 13.2 61 1015.2 9.8 S 9.8 0.0 0.1
11:57 21.0 13.2 61 1015.1 9.2 SW 9.8 0.0 0.1
11:58 21.0 13.2 61 1015.2 9.2 S 9.8 0.0 0.1
11:59 21.1 13.3 61 1015.3 9.2 SW 9.8 0.0 0.1
12:01 21.2 13.4 61 1015.2 10.7 W 10.7 0.0 0.1
12:02 21.2 13.4 61 1015.4 8.3 SW 10.7 0.0 0.1
12:03 21.3 13.5 61 1015.2 7.6 SW 10.7 0.0 0.1
12:04 21.3 13.5 61 1015.4 10.7 S 10.7 0.0 0.1
12:05 21.3 13.5 61 1015.4 10.7 S 10.7 0.0 0.1
12:06 21.3 13.5 61 1015.3 10.7 SW 10.7 0.0 0.1
12:07 21.4 13.6 61 1015.3 9.8 S 10.7 0.0 0.1
12:08 21.4 13.6 61 1015.3 8.3 SW 10.7 0.0 0.1
12:09 21.4 13.8 62 1015.4 9.8 S 10.7 0.0 0.1
12:10 21.5 13.7 61 1015.3 11.4 SE 11.4 0.0 0.1
12:11 21.6 13.8 61 1015.3 13.6 SW 13.6 0.0 0.1
12:12 21.6 13.8 61 1015.3 10.7 SW 13.6 0.0 0.1
12:13 21.6 13.5 60 1015.5 10.7 S 13.6 0.0 0.1
12:14 21.6 13.5 60 1015.4 9.8 SW 13.6 0.0 0.1
12:15 21.6 13.5 60 1015.2 8.3 WSW 13.6 0.0 0.1
12:16 21.5 13.4 60 1015.3 8.3 S 13.6 0.0 0.1
12:17 21.5 13.4 60 1015.4 10.7 S 13.6 0.0 0.1
12:19 21.6 13.5 60 1015.3 9.2 SW 13.6 0.0 0.1
12:20 21.6 13.5 60 1015.3 6.9 SW 13.6 0.0 0.1
12:21 21.6 13.5 60 1015.4 8.3 S 12.1 0.0 0.1
12:22 21.6 13.5 60 1015.3 9.2 SSW 12.1 0.0 0.1
12:23 21.6 13.5 60 1015.4 9.8 SW 12.1 0.0 0.1
12:24 21.5 13.2 59 1015.3 8.3 S 12.1 0.0 0.1
12:25 21.5 13.2 59 1015.4 8.3 SW 12.1 0.0 0.1
12:26 21.5 13.2 59 1015.3 9.2 SW 12.1 0.0 0.1
12:27 21.4 13.1 59 1015.4 9.2 S 12.1 0.0 0.1
12:28 21.4 13.3 60 1015.3 8.3 S 12.1 0.0 0.1
12:29 21.4 13.3 60 1015.5 10.7 S 12.1 0.0 0.1
12:30 21.4 13.3 60 1015.3 7.6 SW 11.4 0.0 0.1
12:31 21.4 13.1 59 1015.4 9.8 SW 11.4 0.0 0.1
12:32 21.4 13.1 59 1015.4 6.9 S 11.4 0.0 0.1
12:33 21.4 13.1 59 1015.4 7.6 SW 11.4 0.0 0.1
12:34 21.4 13.1 59 1015.5 11.4 SW 12.1 0.0 0.1
12:35 21.3 13.0 59 1015.5 13.0 SE 13.0 0.0 0.1
12:36 21.3 13.0 59 1015.5 10.7 S 13.0 0.0 0.1
12:37 21.3 13.0 59 1015.4 8.3 W 13.0 0.0 0.1
12:38 21.3 13.0 59 1015.5 10.7 S 13.0 0.0 0.1
12:40 21.3 13.0 59 1015.6 11.4 SE 13.0 0.0 0.1
12:41 21.3 13.0 59 1015.6 11.4 SW 13.0 0.0 0.1
12:42 21.3 13.0 59 1015.5 11.4 SW 13.0 0.0 0.1
12:43 21.4 13.3 60 1015.5 12.1 SW 13.0 0.0 0.1
12:44 21.4 13.3 60 1015.5 12.1 SW 13.0 0.0 0.1
12:45 21.4 13.3 60 1015.4 6.0 S 13.0 0.0 0.1
12:46 21.4 13.3 60 1015.5 9.8 SW 13.0 0.0 0.1
12:47 21.5 13.4 60 1015.4 14.5 SW 14.5 0.0 0.1
12:48 21.5 13.2 59 1015.4 9.8 NW 14.5 0.0 0.1
12:49 21.4 13.1 59 1015.4 14.5 S 14.5 0.0 0.1
12:50 21.3 13.0 59 1015.3 9.8 SE 14.5 0.0 0.1
12:51 21.3 13.0 59 1015.5 11.4 S 14.5 0.0 0.1
12:52 21.3 13.0 59 1015.4 9.2 S 14.5 0.0 0.1
12:53 21.3 13.0 59 1015.5 13.0 S 14.5 0.0 0.1
12:54 21.3 13.2 60 1015.5 11.4 S 14.5 0.0 0.1
12:55 21.3 13.2 60 1015.4 11.4 S 14.5 0.0 0.1
12:56 21.3 13.0 59 1015.5 12.1 S 14.5 0.0 0.1
12:57 21.2 12.9 59 1015.3 9.8 S 14.5 0.0 0.1
12:58 21.2 12.9 59 1015.5 8.3 S 14.5 0.0 0.1
12:59 21.3 13.2 60 1015.3 13.0 S 13.6 0.0 0.1
13:01 21.3 13.2 60 1015.4 7.6 S 13.6 0.0 0.1
13:02 21.3 13.2 60 1015.4 7.6 SE 13.6 0.0 0.1
13:03 21.3 13.2 60 1015.3 13.6 S 13.6 0.0 0.1
13:04 21.3 13.2 60 1015.5 10.7 NNE 13.6 0.0 0.1
13:05 21.3 13.0 59 1015.5 11.4 S 13.6 0.0 0.1
13:06 21.2 12.9 59 1015.4 13.0 S 13.6 0.0 0.1
13:07 21.2 12.9 59 1015.2 10.7 S 13.6 0.0 0.1
13:08 21.1 12.8 59 1015.2 8.3 SW 13.6 0.0 0.1
13:09 21.1 12.8 59 1015.4 10.7 S 13.6 0.0 0.1
13:11 21.1 13.0 60 1015.3 9.2 SW 13.6 0.0 0.1
13:12 21.1 13.0 60 1015.4 10.7 S 13.6 0.0 0.1
13:13 21.1 12.8 59 1015.3 9.2 S 13.6 0.0 0.1
13:14 21.2 13.1 60 1015.3 9.8 S 13.0 0.0 0.1
13:15 21.2 13.1 60 1015.4 8.3 SW 13.0 0.0 0.1
13:16 21.3 13.2 60 1015.3 13.0 SW 14.5 0.0 0.1
13:17 21.3 13.2 60 1015.5 13.0 SE 14.5 0.0 0.1
13:19 21.3 13.0 59 1015.5 13.0 SE 14.5 0.0 0.1
13:20 21.3 13.0 59 1015.4 12.1 SSE 14.5 0.0 0.1
13:21 21.3 13.0 59 1015.5 10.7 SW 14.5 0.0 0.1
13:22 21.3 13.0 59 1015.4 10.7 SW 14.5 0.0 0.1
13:23 21.3 13.0 59 1015.4 13.6 SE 14.5 0.0 0.1
13:24 21.3 13.0 59 1015.3 10.7 S 14.5 0.0 0.1
13:25 21.2 12.9 59 1015.3 13.0 SW 14.5 0.0 0.1
13:26 21.2 12.9 59 1015.3 13.0 SW 14.5 0.0 0.1
13:27 21.2 12.9 59 1015.5 13.6 S 13.6 0.0 0.1
13:28 21.1 12.8 59 1015.3 9.8 S 13.6 0.0 0.1
13:29 21.1 12.8 59 1015.4 11.4 SW 13.6 0.0 0.1
13:30 21.2 12.9 59 1015.4 13.0 SW 13.6 0.0 0.1
13:31 21.2 12.9 59 1015.4 13.0 SW 13.6 0.0 0.1
13:32 21.3 13.2 60 1015.5 12.1 S 13.6 0.0 0.1
13:33 21.4 13.3 60 1015.3 15.2 S 15.2 0.0 0.1
13:34 21.5 13.2 59 1015.1 13.0 SW 15.2 0.0 0.1
13:35 21.5 13.4 60 1015.3 15.2 SW 15.2 0.0 0.1
13:36 21.6 13.3 59 1015.3 12.1 SW 15.2 0.0 0.1
13:37 21.7 13.4 59 1015.4 12.1 S 15.2 0.0 0.1
13:38 21.7 13.4 59 1015.5 13.0 SW 15.2 0.0 0.1
13:39 21.6 13.3 59 1015.3 11.4 W 15.2 0.0 0.1
13:40 21.7 13.4 59 1015.5 10.7 S 15.2 0.0 0.1
13:42 21.7 13.4 59 1015.3 9.2 SE 15.2 0.0 0.1
13:43 21.7 13.4 59 1015.3 11.4 S 15.2 0.0 0.1
13:44 21.7 13.1 58 1015.2 8.3 SW 15.2 0.0 0.1
13:45 21.7 13.1 58 1015.2 8.3 SW 15.2 0.0 0.1
13:46 21.6 13.0 58 1015.0 9.2 W 13.0 0.0 0.1
13:47 21.6 13.3 59 1015.1 11.4 SW 13.0 0.0 0.1
13:48 21.7 13.4 59 1015.2 9.2 S 13.0 0.0 0.1
13:49 21.7 13.4 59 1015.1 13.0 S 13.0 0.0 0.1
13:50 21.7 13.1 58 1015.1 9.2 S 13.0 0.0 0.1
13:51 21.7 13.1 58 1015.1 9.2 S 13.0 0.0 0.1
13:52 21.6 13.0 58 1015.0 11.4 S 13.0 0.0 0.1
13:53 21.6 13.0 58 1015.0 9.8 WSW 13.0 0.0 0.1
13:54 21.5 12.9 58 1015.2 13.6 SW 13.6 0.0 0.1
13:55 21.4 12.8 58 1015.1 13.6 SW 13.6 0.0 0.1
13:56 21.4 12.8 58 1015.1 13.6 SW 13.6 0.0 0.1
13:57 21.4 13.1 59 1015.1 12.1 SW 13.6 0.0 0.1
13:58 21.5 13.2 59 1015.1 11.4 SW 13.6 0.0 0.1
13:59 21.5 13.4 60 1015.2 11.4 S 13.6 0.0 0.1
14:00 21.6 13.5 60 1015.1 6.9 S 13.6 0.0 0.1
14:01 21.6 13.5 60 1015.0 9.8 S 13.6 0.0 0.1
14:02 21.6 13.3 59 1015.1 6.9 SW 13.6 0.0 0.1
14:03 21.7 13.6 60 1015.2 8.3 S 13.6 0.0 0.1
14:04 21.8 13.7 60 1015.2 12.1 S 13.6 0.0 0.1
14:05 21.9 13.5 59 1015.2 12.1 SW 14.5 0.0 0.1
14:06 21.9 13.5 59 1015.0 11.4 SW 14.5 0.0 0.1
14:07 21.9 13.5 59 1015.1 9.8 S 14.5 0.0 0.1
14:08 22.0 13.9 60 1015.1 12.1 E 14.5 0.0 0.1
14:09 22.0 13.6 59 1015.1 13.0 S 14.5 0.0 0.1
14:10 22.0 13.6 59 1015.2 9.8 W 14.5 0.0 0.1
14:11 22.0 13.4 58 1015.1 11.4 SW 14.5 0.0 0.1
14:12 22.0 13.4 58 1015.1 9.2 SE 14.5 0.0 0.1
14:13 22.0 13.6 59 1015.0 10.7 SW 14.5 0.0 0.1
14:14 22.0 13.4 58 1015.2 10.7 S 14.5 0.0 0.1
14:15 22.1 13.5 58 1015.1 12.1 SE 13.0 0.0 0.1
14:16 22.1 13.5 58 1015.1 9.2 SW 13.0 0.0 0.1
14:17 22.1 13.5 58 1015.1 9.2 SW 13.0 0.0 0.1
14:18 22.1 13.5 58 1015.1 12.1 S 13.0 0.0 0.1
14:19 22.2 13.6 58 1015.0 6.9 SE 12.1 0.0 0.1
14:20 22.2 13.6 58 1015.1 7.6 SW 12.1 0.0 0.1
14:21 22.1 13.5 58 1015.1 6.9 S 12.1 0.0 0.1
14:22 22.1 13.2 57 1015.0 11.4 N 12.1 0.0 0.1
14:23 22.1 13.2 57 1015.0 11.4 N 12.1 0.0 0.1
14:24 22.1 13.2 57 1015.0 12.1 S 12.1 0.0 0.1
14:25 22.0 13.1 57 1015.1 12.1 SW 12.1 0.0 0.1
14:26 21.9 13.0 57 1015.0 11.4 SW 12.1 0.0 0.1
14:27 21.9 13.0 57 1015.1 9.8 NW 12.1 0.0 0.1
14:28 21.8 12.9 57 1015.1 9.8 S 13.0 0.0 0.1
14:30 21.8 12.9 57 1015.2 9.2 SW 13.0 0.0 0.1
14:31 21.7 12.8 57 1015.0 10.7 S 13.0 0.0 0.1
14:32 21.7 12.8 57 1015.0 13.6 S 13.6 0.0 0.1
14:33 21.7 12.8 57 1015.1 9.8 S 13.6 0.0 0.1
14:34 21.6 12.7 57 1015.0 11.4 SW 13.6 0.0 0.1
14:35 21.6 13.0 58 1015.0 13.6 S 13.6 0.0 0.1
14:36 21.6 13.0 58 1015.0 13.6 S 13.6 0.0 0.1
14:37 21.5 12.9 58 1015.1 13.0 S 13.6 0.0 0.1
14:38 21.5 12.6 57 1015.1 12.1 SE 13.6 0.0 0.1
14:39 21.5 12.6 57 1015.1 8.3 S 13.6 0.0 0.1
14:40 21.5 12.9 58 1015.1 14.5 S 14.5 0.0 0.1
14:41 21.5 12.9 58 1015.1 9.8 S 14.5 0.0 0.1
14:42 21.6 13.0 58 1015.0 12.1 SSW 14.5 0.0 0.1
14:43 21.6 13.0 58 1015.0 12.1 SW 14.5 0.0 0.1
14:44 21.6 13.0 58 1015.0 10.7 SW 14.5 0.0 0.1
14:45 21.7 13.1 58 1015.2 11.4 SW 14.5 0.0 0.1
14:47 21.7 12.8 57 1015.0 11.4 SW 14.5 0.0 0.1
14:48 21.7 12.8 57 1015.1 9.8 SW 14.5 0.0 0.1
14:49 21.6 12.7 57 1015.0 13.0 S 14.5 0.0 0.1
14:50 21.7 12.8 57 1015.2 12.1 S 14.5 0.0 0.1
14:51 21.7 12.8 57 1014.9 12.1 S 13.0 0.0 0.1
14:52 21.6 12.7 57 1015.0 10.7 S 13.0 0.0 0.1
14:53 21.7 12.8 57 1015.1 9.2 SE 13.0 0.0 0.1
14:54 21.7 12.8 57 1014.9 8.3 SW 13.0 0.0 0.1
14:55 21.7 12.8 57 1015.0 10.7 S 13.0 0.0 0.1
14:56 21.7 12.8 57 1014.9 12.1 SW 13.0 0.0 0.1
14:57 21.7 12.8 57 1015.0 10.7 SE 13.0 0.0 0.1
14:58 21.6 12.7 57 1015.0 13.0 SW 13.0 0.0 0.1
14:59 21.6 12.7 57 1014.9 11.4 SW 13.0 0.0 0.1
15:00 21.6 12.7 57 1015.0 11.4 SE 13.0 0.0 0.1
15:01 21.6 12.7 57 1015.0 11.4 SE 13.0 0.0 0.1
15:02 21.5 12.6 57 1014.9 9.2 S 13.0 0.0 0.1
15:04 21.5 12.9 58 1015.1 9.8 SW 13.0 0.0 0.1
15:05 21.5 12.9 58 1015.0 11.4 SW 13.0 0.0 0.1
15:06 21.5 12.9 58 1015.1 10.7 SW 13.0 0.0 0.1
15:08 21.5 12.9 58 1015.0 10.7 S 13.0 0.0 0.1
15:09 21.5 12.9 58 1015.0 7.6 S 11.4 0.0 0.1
15:10 21.5 12.9 58 1014.9 9.8 N 11.4 0.0 0.1
15:11 21.5 13.2 59 1015.1 9.8 SE 11.4 0.0 0.1
15:12 21.5 13.2 59 1015.1 14.5 SW 14.5 0.0 0.1
15:13 21.5 13.2 59 1015.0 10.7 SW 14.5 0.0 0.1
15:14 21.5 12.9 58 1015.1 13.0 SW 14.5 0.0 0.1
15:15 21.4 12.8 58 1015.2 13.0 S 14.5 0.0 0.1
15:16 21.4 13.1 59 1015.1 9.2 WSW 14.5 0.0 0.1
15:17 21.4 13.1 59 1015.1 10.7 SE 14.5 0.0 0.1
15:18 21.4 12.8 58 1015.1 11.4 S 14.5 0.0 0.1
15:19 21.3 12.7 58 1015.0 10.7 SW 14.5 0.0 0.1
15:20 21.3 13.0 59 1014.9 9.2 SW 14.5 0.0 0.1
15:21 21.3 13.0 59 1015.1 8.3 SW 14.5 0.0 0.1
15:22 21.3 13.0 59 1015.1 13.6 SW 14.5 0.0 0.1
15:24 21.3 13.0 59 1015.2 9.2 SW 13.6 0.0 0.1
15:25 21.2 12.9 59 1015.1 10.7 SW 13.6 0.0 0.1
15:26 21.2 12.9 59 1015.0 9.2 S 13.6 0.0 0.1
15:27 21.2 12.9 59 1015.1 7.6 S 13.6 0.0 0.1
15:28 21.2 12.9 59 1015.0 10.7 SW 13.6 0.0 0.1
15:29 21.2 12.9 59 1015.2 10.7 S 13.6 0.0 0.1
15:30 21.2 12.9 59 1015.1 9.8 S 13.6 0.0 0.1
15:31 21.1 12.8 59 1015.1 9.8 S 13.6 0.0 0.1
15:32 21.1 12.8 59 1015.2 9.8 S 12.1 0.0 0.1
15:33 21.1 12.8 59 1015.1 9.8 SE 12.1 0.0 0.1
15:34 21.1 12.8 59 1015.1 10.7 SE 12.1 0.0 0.1
15:35 21.1 12.8 59 1015.1 9.8 WSW 12.1 0.0 0.1
15:36 21.1 12.8 59 1015.0 11.4 WSW 12.1 0.0 0.1
15:37 21.0 12.7 59 1015.0 8.3 SW 12.1 0.0 0.1
15:38 21.0 12.7 59 1015.1 10.7 SW 12.1 0.0 0.1
15:39 21.0 12.7 59 1015.0 9.8 SW 12.1 0.0 0.1
15:40 21.0 12.7 59 1015.0 12.1 S 12.1 0.0 0.1
15:42 20.9 12.6 59 1015.1 9.2 SW 12.1 0.0 0.1
15:43 20.9 12.6 59 1015.1 9.2 SW 12.1 0.0 0.1
15:44 20.8 12.5 59 1015.0 10.7 S 12.1 0.0 0.1
15:45 20.8 12.5 59 1015.2 11.4 S 12.1 0.0 0.1
15:46 20.7 12.7 60 1015.0 9.8 SW 12.1 0.0 0.1
15:47 20.7 12.7 60 1015.1 9.8 SW 12.1 0.0 0.1
15:48 20.5 12.5 60 1015.2 12.1 SW 12.1 0.0 0.1
15:49 20.7 12.7 60 1015.0 11.4 S 12.1 0.0 0.1
15:50 20.7 12.7 60 1015.0 12.1 S 14.5 0.0 0.1
15:51 20.6 12.6 60 1015.1 10.7 SE 14.5 0.0 0.1
15:52 20.6 12.6 60 1015.1 9.2 SW 14.5 0.0 0.1
15:53 20.6 12.6 60 1015.2 9.8 S 14.5 0.0 0.1
15:54 20.6 12.6 60 1015.1 10.7 SW 14.5 0.0 0.1
15:55 20.6 12.6 60 1015.0 9.2 S 14.5 0.0 0.1
15:56 20.6 12.6 60 1015.0 7.6 SE 14.5 0.0 0.1
15:57 20.6 12.6 60 1015.0 9.2 SW 14.5 0.0 0.1
15:59 20.6 12.6 60 1015.2 15.2 S 15.2 0.0 0.1
16:00 20.7 12.4 59 1015.0 10.7 SW 15.2 0.0 0.1
16:01 20.7 12.4 59 1015.1 10.7 SW 15.2 0.0 0.1
16:02 20.7 12.4 59 1015.2 10.7 SW 15.2 0.0 0.1
16:03 20.7 12.4 59 1015.1 10.7 SW 15.2 0.0 0.1
16:04 20.7 12.4 59 1015.2 10.7 SW 15.2 0.0 0.1
16:05 20.7 12.7 60 1015.1 13.0 SW 15.2 0.0 0.1
16:06 20.7 12.4 59 1015.0 11.4 SW 15.2 0.0 0.1
16:07 20.7 12.4 59 1015.0 8.3 S 15.2 0.0 0.1
16:08 20.8 12.8 60 1015.1 9.8 S 15.2 0.0 0.1
16:09 20.8 12.8 60 1015.0 9.2 S 13.0 0.0 0.1
16:10 20.8 12.8 60 1015.0 9.2 S 13.0 0.0 0.1
16:11 20.8 12.5 59 1015.2 10.7 S 13.0 0.0 0.1
16:12 20.8 12.8 60 1015.1 6.9 S 13.0 0.0 0.1
16:13 20.8 12.8 60 1015.2 12.1 S 13.0 0.0 0.1
16:14 20.8 12.8 60 1015.1 7.6 SW 13.0 0.0 0.1
16:15 20.8 12.8 60 1015.2 8.3 S 13.0 0.0 0.1
16:17 20.7 12.7 60 1015.0 12.1 SW 12.1 0.0 0.1
16:18 20.7 12.7 60 1015.0 8.3 S 12.1 0.0 0.1
16:19 20.6 12.6 60 1015.0 12.1 SW 12.1 0.0 0.1
16:20 20.6 12.6 60 1015.0 9.8 SE 12.1 0.0 0.1
16:21 20.5 12.7 61 1015.2 12.1 S 12.1 0.0 0.1
16:22 20.5 12.7 61 1015.1 13.6 SE 13.6 0.0 0.1
16:23 20.5 12.7 61 1015.1 12.1 SSW 13.6 0.0 0.1
16:24 20.4 12.6 61 1015.0 10.7 S 13.6 0.0 0.1
16:25 20.4 12.6 61 1015.2 9.8 S 13.6 0.0 0.1
16:26 20.3 12.5 61 1015.0 9.2 WSW 13.6 0.0 0.1
16:27 20.3 12.5 61 1015.0 9.2 WSW 13.6 0.0 0.1
16:28 20.3 12.5 61 1015.1 10.7 SW 13.6 0.0 0.1
16:29 20.2 12.5 61 1015.0 12.1 SW 13.6 0.0 0.1
16:30 20.1 12.4 61 1015.1 11.4 SW 13.6 0.0 0.1
16:31 20.1 12.4 61 1015.0 9.8 S 13.6 0.0 0.1
16:32 20.0 12.3 61 1015.0 10.7 S 13.6 0.0 0.1
16:33 20.0 12.3 61 1015.0 9.8 S 12.1 0.0 0.1
16:35 19.9 12.4 62 1014.9 9.8 SW 12.1 0.0 0.1
16:36 19.9 12.4 62 1014.9 7.6 S 12.1 0.0 0.1
16:37 19.9 12.4 62 1015.0 11.4 SW 12.1 0.0 0.1
16:38 19.9 12.4 62 1015.0 10.7 S 12.1 0.0 0.1
16:39 19.9 12.4 62 1015.1 7.6 NW 11.4 0.0 0.1
16:40 19.9 12.7 63 1015.0 9.2 SE 11.4 0.0 0.1
16:41 19.9 12.7 63 1015.0 9.8 SSW 11.4 0.0 0.1
16:42 19.9 12.7 63 1015.0 9.8 S 11.4 0.0 0.1
16:43 19.8 12.6 63 1015.0 9.8 SSE 11.4 0.0 0.1
16:44 19.8 12.6 63 1015.0 8.3 SE 11.4 0.0 0.1
16:45 19.8 12.6 63 1015.1 10.7 S 11.4 0.0 0.1
16:46 19.9 12.7 63 1015.0 9.8 SSW 11.4 0.0 0.1
16:47 19.9 12.7 63 1015.0 10.7 SE 11.4 0.0 0.1
16:48 19.9 12.7 63 1015.0 7.6 SE 11.4 0.0 0.1
16:49 19.9 12.7 63 1014.9 10.7 S 11.4 0.0 0.1
16:50 19.9 12.7 63 1015.0 12.1 S 12.1 0.0 0.1
16:51 19.9 12.7 63 1015.0 10.7 S 12.1 0.0 0.1
16:53 19.8 12.6 63 1015.0 12.1 SE 12.1 0.0 0.1
16:54 19.8 12.6 63 1015.0 9.8 SW 12.1 0.0 0.1
16:55 19.8 12.6 63 1014.9 8.3 S 12.1 0.0 0.1
16:56 19.8 12.6 63 1014.8 9.8 SW 12.1 0.0 0.1
16:57 19.8 12.6 63 1014.7 9.2 SE 12.1 0.0 0.1
16:58 19.8 12.6 63 1014.9 9.8 SE 12.1 0.0 0.1
16:59 19.8 12.6 63 1014.8 13.0 S 13.0 0.0 0.1
17:00 19.8 12.6 63 1014.8 11.4 S 13.0 0.0 0.1
17:01 19.8 12.6 63 1014.9 11.4 S 13.0 0.0 0.1
17:02 19.8 12.6 63 1015.0 11.4 S 13.0 0.0 0.1
17:03 19.8 12.6 63 1015.0 11.4 S 13.0 0.0 0.1
17:04 19.8 12.6 63 1014.8 11.4 S 13.0 0.0 0.1
17:05 19.8 12.6 63 1014.9 11.4 S 13.0 0.0 0.1
17:06 19.7 12.7 64 1014.8 9.2 SW 13.0 0.0 0.1
17:07 19.7 12.7 64 1014.7 8.3 S 13.0 0.0 0.1
17:08 19.7 12.7 64 1015.0 11.4 S 13.0 0.0 0.1
17:09 19.7 12.7 64 1014.9 13.0 SW 13.0 0.0 0.1
17:10 19.8 12.8 64 1015.0 13.6 S 13.6 0.0 0.1
17:11 19.8 12.8 64 1015.0 10.7 S 13.6 0.0 0.1
17:12 19.8 12.8 64 1014.9 13.0 SW 13.6 0.0 0.1
17:13 19.7 12.7 64 1015.0 9.8 S 13.6 0.0 0.1
17:14 19.7 12.7 64 1014.9 9.2 S 13.6 0.0 0.1
17:16 19.7 12.5 63 1014.9 12.1 SE 13.6 0.0 0.1
17:17 19.7 12.5 63 1014.8 10.7 SW 13.6 0.0 0.1
17:19 19.7 12.5 63 1014.7 11.4 S 13.6 0.0 0.1
17:20 19.7 12.5 63 1014.9 10.7 S 13.6 0.0 0.1
17:21 19.7 12.5 63 1014.8 10.7 S 13.0 0.0 0.1
17:22 19.7 12.5 63 1014.8 11.4 S 13.0 0.0 0.1
17:23 19.7 12.5 63 1014.8 8.3 S 12.1 0.0 0.1
17:24 19.7 12.2 62 1014.9 10.7 S 12.1 0.0 0.1
17:25 19.7 12.2 62 1014.7 13.0 S 13.0 0.0 0.1
17:26 19.7 12.2 62 1014.7 11.4 SW 13.0 0.0 0.1
17:27 19.7 12.2 62 1014.7 12.1 S 13.0 0.0 0.1
17:28 19.6 12.1 62 1014.8 12.1 S 13.0 0.0 0.1
17:29 19.6 12.1 62 1014.8 8.3 SW 13.0 0.0 0.1
17:30 19.5 12.0 62 1014.8 10.7 S 13.0 0.0 0.1
17:31 19.5 12.0 62 1014.8 10.7 S 13.0 0.0 0.1
17:32 19.5 12.0 62 1014.7 9.2 SE 13.0 0.0 0.1
17:33 19.5 12.0 62 1014.8 13.0 S 13.0 0.0 0.1
17:34 19.5 12.0 62 1014.8 11.4 S 13.0 0.0 0.1
17:35 19.5 12.0 62 1014.8 10.7 S 13.0 0.0 0.1
17:36 19.5 12.0 62 1014.7 9.2 SE 13.0 0.0 0.1
17:37 19.5 12.0 62 1014.8 10.7 S 13.0 0.0 0.1
17:38 19.5 12.0 62 1014.8 9.8 SW 13.0 0.0 0.1
17:39 19.5 12.3 63 1014.9 12.1 S 13.0 0.0 0.1
17:40 19.5 12.3 63 1014.9 9.2 S 13.0 0.0 0.1
17:41 19.5 12.3 63 1015.0 9.8 SW 13.0 0.0 0.1
17:42 19.5 12.3 63 1015.0 13.0 S 13.0 0.0 0.1
17:43 19.5 12.3 63 1015.0 13.6 SW 13.6 0.0 0.1
17:44 19.5 12.3 63 1015.0 11.4 SW 13.6 0.0 0.1
17:45 19.4 12.2 63 1015.0 13.0 SW 13.6 0.0 0.1
17:46 19.4 12.2 63 1014.8 11.4 S 13.6 0.0 0.1
17:47 19.3 12.1 63 1014.9 9.2 NNE 13.6 0.0 0.1
17:48 19.3 12.1 63 1015.0 9.8 SW 13.6 0.0 0.1
17:49 19.2 12.0 63 1015.0 11.4 SW 13.6 0.0 0.1
17:50 19.2 12.0 63 1015.0 11.4 SW 13.6 0.0 0.1
17:51 19.2 12.0 63 1015.1 6.9 SW 13.6 0.0 0.1
17:52 19.2 12.2 64 1014.9 10.7 SW 13.6 0.0 0.1
17:53 19.2 12.2 64 1014.9 9.2 SW 13.6 0.0 0.1
17:54 19.1 12.1 64 1014.9 8.3 SW 13.0 0.0 0.1
17:55 19.1 12.1 64 1015.1 10.7 W 13.0 0.0 0.1
17:56 19.1 12.1 64 1015.0 10.7 S 11.4 0.0 0.1
17:58 19.0 12.0 64 1014.9 10.7 S 11.4 0.0 0.1
17:59 19.0 12.0 64 1015.1 9.8 S 11.4 0.0 0.1
18:00 19.0 12.0 64 1014.9 9.2 S 11.4 0.0 0.1
18:01 19.0 12.3 65 1015.1 11.4 SW 11.4 0.0 0.1
18:02 19.0 12.3 65 1014.9 9.2 NW 11.4 0.0 0.1
18:03 18.9 12.2 65 1015.0 11.4 S 11.4 0.0 0.1
18:04 18.9 12.2 65 1015.0 10.7 S 11.4 0.0 0.1
18:05 18.9 12.2 65 1015.0 9.8 S 11.4 0.0 0.1
18:06 18.9 12.2 65 1015.1 6.9 S 11.4 0.0 0.1
18:07 18.9 12.2 65 1015.1 9.8 SW 11.4 0.0 0.1
18:08 18.9 12.2 65 1015.0 10.7 S 11.4 0.0 0.1
18:09 18.8 12.1 65 1015.0 11.4 SW 11.4 0.0 0.1
18:10 18.8 12.1 65 1015.0 12.1 SW 12.1 0.0 0.1
18:11 18.8 12.1 65 1015.1 10.7 SW 12.1 0.0 0.1
18:12 18.8 12.1 65 1015.0 9.8 S 12.1 0.0 0.1
18:13 18.8 12.1 65 1015.1 11.4 SE 12.1 0.0 0.1
18:15 18.7 12.0 65 1015.0 11.4 SW 12.1 0.0 0.1
18:16 18.7 12.0 65 1015.2 9.8 E 12.1 0.0 0.1
18:17 18.6 11.9 65 1015.1 8.3 SW 12.1 0.0 0.1
18:18 18.7 12.0 65 1015.2 10.7 S 12.1 0.0 0.1
18:19 18.6 11.9 65 1015.1 10.7 SW 12.1 0.0 0.1
18:20 18.6 11.9 65 1015.2 9.8 SW 11.4 0.0 0.1
18:21 18.6 12.1 66 1015.0 12.1 SW 12.1 0.0 0.1
18:22 18.6 12.1 66 1015.3 10.7 S 12.1 0.0 0.1
18:23 18.6 12.1 66 1014.9 9.8 SW 12.1 0.0 0.1
18:24 18.6 12.1 66 1015.0 9.2 SW 12.1 0.0 0.1
18:25 18.6 12.1 66 1015.1 9.2 SE 12.1 0.0 0.1
18:26 18.6 12.1 66 1015.0 12.1 WSW 12.1 0.0 0.1
18:27 18.6 12.1 66 1015.1 10.7 S 12.1 0.0 0.1
18:28 18.6 12.1 66 1015.1 11.4 SW 12.1 0.0 0.1
18:29 18.6 12.1 66 1015.2 8.3 S 12.1 0.0 0.1
18:30 18.6 12.1 66 1015.0 6.9 SW 12.1 0.0 0.1
18:31 18.6 12.1 66 1015.1 12.1 WSW 12.1 0.0 0.1
18:32 18.6 12.1 66 1015.1 10.7 SW 12.1 0.0 0.1
18:34 18.5 12.0 66 1015.2 9.8 SW 12.1 0.0 0.1
18:35 18.5 12.0 66 1015.1 9.8 S 12.1 0.0 0.1
18:36 18.5 12.0 66 1015.0 9.8 SW 12.1 0.0 0.1
18:37 18.5 12.0 66 1014.9 8.3 SSW 12.1 0.0 0.1
18:38 18.5 12.0 66 1014.8 9.2 S 12.1 0.0 0.1
18:39 18.5 12.0 66 1014.8 8.3 S 12.1 0.0 0.1
18:40 18.5 12.0 66 1015.0 6.9 SW 12.1 0.0 0.1
18:41 18.5 12.0 66 1014.9 9.2 S 10.7 0.0 0.1
18:42 18.5 12.0 66 1014.7 9.2 S 10.7 0.0 0.1
18:43 18.5 12.0 66 1015.0 10.7 SW 10.7 0.0 0.1
18:44 18.5 12.0 66 1014.9 9.2 SSW 10.7 0.0 0.1
18:45 18.5 12.0 66 1014.9 6.9 SE 10.7 0.0 0.1
18:46 18.5 12.0 66 1014.9 6.9 SW 10.7 0.0 0.1
18:47 18.5 12.0 66 1014.7 9.2 SW 10.7 0.0 0.1
18:48 18.5 12.0 66 1014.8 12.1 S 12.1 0.0 0.1
18:49 18.5 12.0 66 1014.7 11.4 SE 12.1 0.0 0.1
18:50 18.5 12.0 66 1014.8 10.7 S 12.1 0.0 0.1
18:52 18.4 12.2 67 1014.8 8.3 SW 12.1 0.0 0.1
18:53 18.4 12.2 67 1014.7 8.3 S 12.1 0.0 0.1
18:54 18.3 12.3 68 1014.7 7.6 S 12.1 0.0 0.1
18:55 18.3 12.3 68 1014.4 7.6 S 12.1 0.0 0.1
18:56 18.3 12.3 68 1014.6 6.0 SW 12.1 0.0 0.1
18:57 18.3 12.3 68 1014.5 8.3 SSW 12.1 0.0 0.1
18:58 18.2 12.2 68 1014.5 6.0 SE 11.4 0.0 0.1
18:59 18.2 12.2 68 1014.6 9.2 SE 10.7 0.0 0.1
19:00 18.2 12.4 69 1014.5 7.6 S 10.7 0.0 0.1
19:01 18.2 12.4 69 1014.6 7.6 S 10.7 0.0 0.1
19:02 18.2 12.4 69 1014.7 7.6 S 9.2 0.0 0.1
19:03 18.2 12.4 69 1014.5 7.6 S 9.2 0.0 0.1
19:04 18.2 12.4 69 1014.4 7.6 S 9.2 0.0 0.1
19:05 18.1 12.6 70 1014.3 4.5 S 9.2 0.0 0.1
19:06 18.1 12.6 70 1014.4 4.5 SW 9.2 0.0 0.1
19:07 18.1 12.6 70 1014.3 5.4 SW 9.2 0.0 0.1
19:09 18.1 12.6 70 1014.4 6.9 S 9.2 0.0 0.1
19:10 18.1 12.6 70 1014.4 8.3 SW 8.3 0.0 0.1
19:11 18.0 12.5 70 1014.5 9.2 SW 9.2 0.0 0.1
19:12 18.0 12.7 71 1014.4 6.9 SW 9.2 0.0 0.1
19:13 18.0 12.7 71 1014.4 5.4 SSE 9.2 0.0 0.1
19:14 18.0 12.7 71 1014.5 6.0 SW 9.2 0.0 0.1
19:15 18.0 12.7 71 1014.4 7.6 S 9.2 0.0 0.1
19:16 17.9 12.6 71 1014.5 9.2 S 9.2 0.0 0.1
19:17 17.9 12.6 71 1014.4 6.0 SW 9.2 0.0 0.1
19:18 17.9 12.6 71 1014.5 6.9 SW 9.2 0.0 0.1
19:19 17.9 12.6 71 1014.5 8.3 SW 9.2 0.0 0.1
19:20 17.8 12.7 72 1014.4 7.6 S 9.8 0.0 0.1
19:21 17.8 12.7 72 1014.4 8.3 S 9.8 0.0 0.1
19:22 17.8 12.7 72 1014.6 6.9 SE 9.8 0.0 0.1
19:23 17.8 12.7 72 1014.5 8.3 SSW 9.8 0.0 0.1
19:24 17.7 12.6 72 1014.5 9.2 S 9.8 0.0 0.1
19:25 17.7 12.6 72 1014.6 6.0 SE 9.8 0.0 0.1
19:26 17.7 12.6 72 1014.5 5.4 S 9.8 0.0 0.1
19:27 17.7 12.8 73 1014.5 6.0 W 9.8 0.0 0.1
19:28 17.7 12.8 73 1014.5 7.6 S 9.8 0.0 0.1
19:29 17.7 12.8 73 1014.5 6.0 SW 9.8 0.0 0.1
19:30 17.7 12.8 73 1014.5 9.2 S 9.2 0.0 0.1
19:31 17.7 12.8 73 1014.5 9.2 S 9.2 0.0 0.1
19:32 17.6 12.7 73 1014.5 8.3 SW 9.2 0.0 0.1
19:33 17.6 12.7 73 1014.4 7.6 SE 9.2 0.0 0.1
19:34 17.6 12.7 73 1014.4 6.9 SW 9.2 0.0 0.1
19:35 17.6 12.9 74 1014.5 9.2 SW 9.2 0.0 0.1
19:36 17.6 12.9 74 1014.6 7.6 S 9.2 0.0 0.1
19:37 17.6 12.9 74 1014.6 5.4 S 9.2 0.0 0.1
19:38 17.5 12.8 74 1014.7 6.9 S 9.2 0.0 0.1
19:39 17.6 12.9 74 1014.7 6.9 S 9.2 0.0 0.1
19:40 17.5 12.8 74 1014.5 5.4 S 9.2 0.0 0.1
19:41 17.5 12.8 74 1014.4 5.4 SW 9.2 0.0 0.1
19:42 17.5 12.8 74 1014.6 7.6 SW 9.2 0.0 0.1
19:43 17.5 13.0 75 1014.5 8.3 S 9.2 0.0 0.1
19:44 17.5 13.0 75 1014.5 6.9 S 9.2 0.0 0.1
19:45 17.5 13.0 75 1014.4 6.0 S 8.3 0.0 0.1
19:46 17.4 12.9 75 1014.5 6.0 SE 8.3 0.0 0.1
19:47 17.4 12.9 75 1014.4 6.0 SW 8.3 0.0 0.1
19:48 17.4 12.9 75 1014.4 6.0 SW 8.3 0.0 0.1
19:49 17.4 12.9 75 1014.4 8.3 SSW 8.3 0.0 0.1
19:50 17.4 12.9 75 1014.4 8.3 SSW 8.3 0.0 0.1
19:51 17.4 12.9 75 1014.5 7.6 S 8.3 0.0 0.1
19:52 17.4 13.1 76 1014.3 7.6 SW 8.3 0.0 0.1
19:53 17.4 13.1 76 1014.4 7.6 S 8.3 0.0 0.1
19:54 17.4 13.1 76 1014.4 7.6 SW 8.3 0.0 0.1
19:55 17.4 13.1 76 1014.4 6.0 SW 8.3 0.0 0.1
19:56 17.3 13.0 76 1014.5 8.3 SW 8.3 0.0 0.1
19:57 17.3 13.0 76 1014.4 5.4 SW 8.3 0.0 0.1
19:58 17.3 13.0 76 1014.4 6.9 S 8.3 0.0 0.1
19:59 17.3 13.0 76 1014.4 6.0 SW 8.3 0.0 0.1
20:00 17.3 13.2 77 1014.5 9.8 W 9.8 0.0 0.1
20:01 17.3 13.2 77 1014.5 8.3 S 9.8 0.0 0.1
20:02 17.3 13.2 77 1014.5 7.6 S 9.8 0.0 0.1
20:03 17.3 13.2 77 1014.4 6.9 SW 9.8 0.0 0.1
20:04 17.3 13.2 77 1014.5 6.9 S 9.8 0.0 0.1
20:05 17.3 13.2 77 1014.4 8.3 S 9.8 0.0 0.1
20:06 17.2 13.1 77 1014.4 6.0 SW 9.8 0.0 0.1
20:07 17.2 13.1 77 1014.4 6.0 SW 9.8 0.0 0.1
20:08 17.2 13.1 77 1014.4 6.9 SW 9.8 0.0 0.1
20:09 17.2 13.1 77 1014.4 5.4 S 9.8 0.0 0.1
20:10 17.2 13.1 77 1014.4 5.4 S 9.8 0.0 0.1
20:11 17.2 13.3 78 1014.4 4.5 SW 9.8 0.0 0.1
20:12 17.2 13.3 78 1014.5 6.0 SE 8.3 0.0 0.1
20:13 17.2 13.3 78 1014.4 4.5 S 8.3 0.0 0.1
20:14 17.2 13.3 78 1014.3 3.1 S 8.3 0.0 0.1
20:15 17.2 13.3 78 1014.3 8.3 S 8.3 0.0 0.1
20:16 17.2 13.3 78 1014.3 5.4 SW 8.3 0.0 0.1
20:17 17.2 13.3 78 1014.4 5.4 S 8.3 0.0 0.1
20:18 17.2 13.3 78 1014.3 5.4 SW 8.3 0.0 0.1
20:19 17.2 13.5 79 1014.3 6.9 SSW 8.3 0.0 0.1
20:20 17.2 13.5 79 1014.2 6.9 SE 8.3 0.0 0.1
20:21 17.3 13.6 79 1014.4 9.2 S 9.2 0.0 0.1
20:22 17.2 13.5 79 1014.3 7.6 SW 9.2 0.0 0.1
20:23 17.2 13.5 79 1014.3 5.4 S 9.2 0.0 0.1
20:24 17.1 13.4 79 1014.5 7.6 SE 9.2 0.0 0.1
20:25 17.1 13.4 79 1014.5 8.3 SE 9.2 0.8 0.1
20:26 17.1 13.4 79 1014.5 6.9 S 9.2 0.8 0.1
20:27 17.1 13.4 79 1014.5 6.9 S 9.2 0.8 0.1
20:28 17.1 13.4 79 1014.5 7.6 S 9.2 0.8 0.1
20:29 17.1 13.6 80 1014.5 9.2 SE 9.2 0.8 0.1
20:30 17.1 13.4 79 1014.5 7.6 S 9.2 0.0 0.1
20:31 17.1 13.6 80 1014.5 6.9 S 9.2 0.0 0.1
20:32 17.1 13.6 80 1014.3 9.2 S 9.2 0.0 0.1
20:33 17.1 13.6 80 1014.4 8.3 S 9.2 0.0 0.1
20:34 17.1 13.6 80 1014.4 7.6 S 9.2 0.0 0.1
20:35 17.0 13.5 80 1014.4 9.2 S 9.2 0.0 0.1
20:36 17.1 13.6 80 1014.3 6.9 SE 9.2 0.0 0.1
20:37 17.0 13.5 80 1014.4 9.2 S 9.2 0.0 0.1
20:38 17.0 13.5 80 1014.3 6.9 S 9.2 0.0 0.1
20:39 17.1 13.6 80 1014.4 8.3 SW 9.2 0.0 0.1
20:40 17.0 13.5 80 1014.5 6.0 S 9.2 0.0 0.1
20:41 17.0 13.7 81 1014.4 7.6 SE 9.2 0.0 0.1
20:42 17.0 13.7 81 1014.4 5.4 SW 9.2 0.0 0.1
20:43 17.0 13.7 81 1014.4 6.0 S 9.2 0.0 0.1
20:44 17.0 13.7 81 1014.4 4.5 S 9.2 0.0 0.1
20:45 17.0 13.7 81 1014.4 6.0 S 9.2 0.0 0.1
20:46 17.0 13.7 81 1014.4 6.0 S 9.2 0.0 0.1
20:47 17.0 13.7 81 1014.6 6.0 S 9.2 0.0 0.1
20:48 17.1 13.8 81 1014.6 6.0 SE 8.3 0.0 0.1
20:49 17.0 13.7 81 1014.4 4.5 S 8.3 0.0 0.1
20:50 17.0 13.7 81 1014.5 3.1 S 7.6 0.0 0.1
20:51 17.0 13.7 81 1014.4 4.5 S 7.6 0.0 0.1
20:52 17.0 13.9 82 1014.5 6.0 S 6.0 0.0 0.1
20:53 17.0 13.9 82 1014.5 6.9 S 6.9 0.0 0.1
20:54 17.1 14.0 82 1014.5 4.5 NW 6.9 0.0 0.1
20:55 17.0 13.9 82 1014.4 5.4 SSE 6.9 0.0 0.1
20:56 17.0 13.9 82 1014.5 7.6 S 7.6 0.0 0.1
20:57 17.0 13.9 82 1014.5 6.9 SW 7.6 0.0 0.1
20:58 17.0 13.9 82 1014.6 6.0 S 7.6 0.0 0.1
20:59 17.1 14.0 82 1014.5 3.8 S 7.6 0.0 0.1
21:00 17.0 13.9 82 1014.6 7.6 S 7.6 0.0 0.1
21:01 17.0 13.9 82 1014.6 7.6 S 7.6 0.0 0.1
21:02 17.0 13.9 82 1014.6 7.6 S 7.6 0.0 0.1
21:03 17.0 13.9 82 1014.7 7.6 S 7.6 0.0 0.1
21:04 17.0 13.9 82 1014.6 7.6 S 7.6 0.0 0.1
21:05 17.0 13.9 82 1014.5 7.6 S 7.6 0.0 0.1
21:06 17.1 14.2 83 1014.5 4.5 S 7.6 0.0 0.1
21:07 17.1 14.2 83 1014.5 4.5 S 7.6 0.0 0.1
21:08 17.1 14.2 83 1014.5 5.4 S 7.6 0.0 0.1
21:09 17.1 14.2 83 1014.5 6.9 SW 7.6 0.8 0.2
21:10 17.1 14.2 83 1014.6 5.4 S 7.6 0.8 0.2
21:11 17.1 14.2 83 1014.6 6.9 SE 7.6 0.8 0.2
21:12 17.1 14.2 83 1014.6 5.4 SW 7.6 0.8 0.2
21:13 17.1 14.2 83 1014.5 4.5 SW 7.6 0.8 0.2
21:14 17.1 14.2 83 1014.8 4.5 S 7.6 0.0 0.3
21:15 17.1 14.2 83 1014.7 4.5 SE 7.6 0.8 0.3
21:16 17.1 14.2 83 1014.6 6.0 SW 7.6 0.8 0.3
21:17 17.1 14.2 83 1014.6 10.7 SW 10.7 0.8 0.3
21:18 17.1 14.4 84 1014.6 6.9 SW 10.7 0.8 0.3
21:19 17.1 14.4 84 1014.6 6.0 S 10.7 0.8 0.3
21:20 17.1 14.4 84 1014.8 6.0 SW 10.7 0.0 0.3
21:21 17.1 14.4 84 1014.6 6.0 WSW 10.7 0.0 0.3
21:22 17.1 14.4 84 1014.6 5.4 S 10.7 0.0 0.3
21:23 17.1 14.4 84 1014.5 5.4 SW 10.7 0.0 0.3
21:24 17.1 14.4 84 1014.6 5.4 SW 10.7 0.0 0.3
21:25 17.1 14.4 84 1014.6 6.0 SW 10.7 0.0 0.3
21:26 17.0 14.3 84 1014.5 6.0 S 10.7 0.0 0.3
21:27 17.1 14.4 84 1014.7 7.6 SW 10.7 0.0 0.3
21:28 17.0 14.3 84 1014.8 6.9 SW 10.7 0.0 0.3
21:29 17.0 14.3 84 1014.8 9.8 SSE 9.8 0.0 0.3
21:30 17.0 14.3 84 1014.7 6.0 SW 9.8 0.0 0.3
21:31 17.0 14.3 84 1014.8 10.7 S 10.7 0.0 0.3
21:32 17.0 14.3 84 1014.7 9.2 SW 10.7 0.0 0.3
21:33 17.0 14.3 84 1014.7 6.9 SW 10.7 0.0 0.3
21:34 17.0 14.3 84 1014.7 6.9 SW 10.7 0.0 0.3
21:35 17.0 14.3 84 1014.8 6.0 SW 10.7 0.0 0.3
21:36 17.0 14.5 85 1014.7 6.0 SE 10.7 0.0 0.3
21:37 17.0 14.5 85 1014.6 6.0 SW 10.7 0.0 0.3
21:38 17.0 14.5 85 1014.7 6.0 S 10.7 0.0 0.3
21:39 17.0 14.5 85 1014.8 7.6 W 10.7 0.0 0.3
21:40 17.0 14.5 85 1014.8 6.9 S 10.7 0.0 0.3
21:41 17.0 14.5 85 1014.8 5.4 SW 10.7 0.0 0.3
21:42 17.0 14.5 85 1014.7 4.5 SW 10.7 0.0 0.3
21:43 17.0 14.5 85 1014.6 5.4 SSW 10.7 0.0 0.3
21:44 17.0 14.5 85 1014.7 7.6 SE 10.7 0.0 0.3
21:45 17.0 14.5 85 1014.7 7.6 SW 10.7 0.0 0.3
21:46 17.0 14.5 85 1014.7 9.8 S 10.7 0.0 0.3
21:47 17.0 14.5 85 1014.6 6.9 SW 10.7 0.0 0.3
21:48 17.0 14.5 85 1014.5 5.4 S 10.7 0.8 0.3
21:49 17.0 14.5 85 1014.7 6.0 S 10.7 0.8 0.3
21:50 17.0 14.5 85 1014.6 7.6 S 9.8 0.8 0.3
21:51 17.0 14.5 85 1014.5 7.6 SSW 9.8 0.8 0.3
21:52 17.0 14.5 85 1014.5 8.3 SSW 9.8 0.8 0.3
21:53 17.0 14.5 85 1014.5 6.0 SSW 9.8 0.0 0.3
21:54 17.0 14.7 86 1014.5 7.6 S 9.8 0.0 0.3
21:55 17.0 14.5 85 1014.6 6.9 SW 9.8 0.0 0.3
21:56 17.0 14.7 86 1014.6 6.9 SW 9.8 0.0 0.3
21:57 17.0 14.7 86 1014.6 6.9 S 8.3 0.0 0.3
21:58 17.0 14.7 86 1014.6 6.0 SW 8.3 0.0 0.3
21:59 17.0 14.7 86 1014.5 6.0 SW 8.3 0.0 0.3
22:00 17.0 14.7 86 1014.7 7.6 S 8.3 0.0 0.3
22:01 17.0 14.7 86 1014.7 7.6 S 8.3 0.0 0.3
22:02 17.0 14.7 86 1014.9 7.6 S 7.6 0.0 0.3
22:03 17.0 14.7 86 1014.9 7.6 S 7.6 0.0 0.3
22:04 17.0 14.7 86 1014.8 7.6 S 7.6 0.0 0.3
22:05 17.0 14.7 86 1014.9 7.6 S 7.6 0.0 0.4
22:06 17.0 14.7 86 1014.9 5.4 S 7.6 0.8 0.4
22:07 17.0 14.7 86 1014.7 7.6 S 7.6 0.8 0.4
22:08 17.0 14.8 87 1014.8 5.4 SE 7.6 0.8 0.4
22:09 17.0 14.7 86 1014.8 6.9 SW 7.6 0.8 0.4
22:10 17.0 14.8 87 1014.8 6.0 W 7.6 0.8 0.4
22:11 17.0 14.8 87 1014.8 3.1 SW 7.6 0.0 0.4
22:12 17.0 14.8 87 1014.7 3.1 SE 7.6 0.0 0.4
22:13 17.0 14.8 87 1014.7 3.8 S 7.6 0.0 0.4
22:14 17.0 14.8 87 1014.9 4.5 SW 7.6 0.0 0.4
22:15 17.0 14.8 87 1014.8 3.8 W 7.6 0.0 0.4
22:16 17.0 14.8 87 1014.7 4.5 S 7.6 0.0 0.4
22:17 17.0 14.8 87 1014.8 3.8 S 7.6 0.0 0.4
22:19 17.0 14.8 87 1014.6 3.8 S 6.0 0.0 0.4
22:20 17.0 14.8 87 1014.7 4.5 S 4.5 0.0 0.4
22:21 17.0 14.8 87 1014.9 4.5 SW 4.5 0.0 0.4
22:22 17.0 14.8 87 1014.7 6.0 SW 6.0 0.0 0.4
22:23 17.0 14.8 87 1014.7 5.4 SW 6.0 0.0 0.4
22:24 17.0 14.8 87 1014.9 5.4 SW 6.0 0.0 0.4
22:25 17.0 14.8 87 1014.8 5.4 S 6.0 0.0 0.4
22:26 17.0 14.8 87 1015.0 6.9 SW 6.9 0.0 0.4
22:27 17.0 14.8 87 1015.0 5.4 S 6.9 0.0 0.4
22:28 17.0 15.0 88 1015.0 6.0 SW 6.9 0.0 0.4
22:29 17.0 15.0 88 1015.0 6.0 SW 6.9 0.0 0.4
22:30 17.0 14.8 87 1015.1 3.8 SE 6.9 0.8 0.4
22:31 17.0 14.8 87 1014.9 5.4 SSW 6.9 0.8 0.4
22:32 17.0 15.0 88 1015.0 4.5 S 6.9 0.8 0.4
22:33 17.0 15.0 88 1015.1 5.4 SW 6.9 0.8 0.4
22:34 17.0 15.0 88 1015.0 5.4 SW 6.9 0.8 0.4
22:35 17.0 15.0 88 1015.1 5.4 SW 6.9 0.0 0.4
22:36 17.0 15.0 88 1015.0 5.4 SSW 6.9 0.0 0.4
22:37 17.0 15.0 88 1015.0 6.0 S 6.0 0.0 0.4
22:39 17.0 15.0 88 1015.0 6.0 S 6.0 0.0 0.5
22:40 17.0 15.0 88 1015.0 5.4 S 6.0 0.8 0.5
22:41 17.0 15.0 88 1015.0 4.5 S 6.0 0.8 0.5
22:42 17.0 15.0 88 1014.9 4.5 SW 6.0 0.8 0.5
22:43 17.0 15.0 88 1014.9 6.0 S 6.0 0.8 0.5
22:44 17.0 15.0 88 1014.8 4.5 S 6.0 0.8 0.5
22:45 17.0 15.0 88 1015.0 3.1 SW 6.0 0.0 0.6
22:46 17.0 15.0 88 1015.0 4.5 S 6.0 0.8 0.6
22:47 17.0 15.0 88 1015.0 4.5 S 6.0 0.8 0.6
22:48 17.0 15.0 88 1015.0 4.5 SW 6.0 0.8 0.6
22:49 17.0 15.0 88 1015.0 3.8 S 6.0 0.8 0.6
22:50 17.0 15.0 88 1015.0 3.1 SW 6.0 0.8 0.6
22:51 17.0 15.0 88 1015.0 3.1 SE 6.0 0.0 0.6
22:52 17.0 15.0 88 1014.9 3.1 SW 6.0 0.0 0.6
22:53 17.0 15.0 88 1015.0 2.2 S 6.0 0.8 0.6
22:54 17.0 15.0 88 1014.9 3.1 S 5.4 0.8 0.6
22:55 17.0 15.0 88 1014.9 2.2 S 5.4 0.8 0.6
22:56 17.0 15.2 89 1015.0 4.5 SW 5.4 0.8 0.6
22:58 17.0 15.2 89 1014.9 4.5 S 5.4 0.0 0.6
22:59 17.0 15.2 89 1015.1 3.8 SW 5.4 0.0 0.6
23:00 17.0 15.2 89 1015.0 3.8 S 5.4 0.0 0.6
23:01 17.0 15.2 89 1015.0 3.8 S 4.5 0.0 0.6
23:02 17.0 15.2 89 1015.0 3.8 S 4.5 0.0 0.6
23:03 17.0 15.2 89 1015.0 3.8 S 4.5 0.0 0.6
23:04 17.0 15.2 89 1014.9 3.8 S 4.5 0.0 0.6
23:05 17.1 15.3 89 1014.9 3.8 S 4.5 0.0 0.6
23:06 17.1 15.3 89 1015.0 4.5 SE 4.5 0.0 0.6
23:07 17.1 15.3 89 1015.0 3.1 S 4.5 0.0 0.6
23:08 17.1 15.3 89 1014.9 3.8 S 4.5 0.0 0.7
23:09 17.1 15.3 89 1015.0 3.8 SW 4.5 0.8 0.7
23:10 17.1 15.3 89 1015.0 4.5 S 4.5 0.8 0.7
23:11 17.1 15.3 89 1015.0 3.8 S 4.5 0.8 0.7
23:12 17.1 15.3 89 1014.8 4.5 S 4.5 0.8 0.7
23:13 17.1 15.3 89 1014.9 3.8 S 4.5 0.8 0.7
23:14 17.1 15.3 89 1015.0 5.4 SE 5.4 0.0 0.7
23:15 17.1 15.3 89 1014.7 3.8 SW 5.4 0.0 0.7
23:16 17.1 15.3 89 1014.8 3.8 SW 5.4 0.0 0.7
23:17 17.1 15.3 89 1014.9 3.1 S 5.4 0.0 0.7
23:18 17.1 15.3 89 1015.0 3.8 S 5.4 0.0 0.7
23:19 17.1 15.3 89 1015.0 3.8 S 5.4 0.0 0.7
23:20 17.1 15.3 89 1014.9 2.2 SW 5.4 0.0 0.7
23:21 17.1 15.3 89 1015.0 0.0 SW 5.4 0.0 0.7
23:22 17.1 15.3 89 1015.0 0.0 S 5.4 0.0 0.7
23:23 17.1 15.3 89 1014.9 0.0 S 5.4 0.0 0.7
23:25 17.1 15.5 90 1015.1 0.0 SW 3.8 0.0 0.7
23:26 17.1 15.5 90 1014.8 0.0 S 3.8 0.0 0.7
23:27 17.1 15.5 90 1014.8 0.0 SW 3.8 0.0 0.7
23:28 17.2 15.6 90 1014.9 0.0 SW 3.8 0.0 0.7
23:29 17.1 15.5 90 1014.8 0.0 SW 2.2 0.0 0.7
23:30 17.1 15.5 90 1014.8 0.0 SW 0.0 0.0 0.7
23:31 17.1 15.5 90 1014.8 0.0 S 0.0 0.0 0.7
23:32 17.1 15.5 90 1014.7 0.0 SE 0.0 0.0 0.8
23:33 17.1 15.5 90 1014.9 0.0 S 0.0 0.8 0.8
23:34 17.2 15.6 90 1014.7 0.0 S 0.0 0.8 0.8
23:35 17.2 15.6 90 1014.8 0.0 SW 0.0 0.8 0.8
23:36 17.2 15.6 90 1014.8 0.0 SW 0.0 0.8 0.8
23:37 17.2 15.6 90 1014.7 5.4 S 5.4 0.8 0.8
23:38 17.2 15.6 90 1014.8 2.2 SW 5.4 0.0 0.8
23:39 17.2 15.6 90 1014.8 0.0 SW 5.4 0.0 0.8
23:40 17.2 15.6 90 1014.8 1.6 S 5.4 0.0 0.8
23:42 17.2 15.6 90 1014.8 4.5 SW 5.4 0.0 0.8
23:43 17.2 15.6 90 1014.9 5.4 SW 5.4 0.0 0.8
23:44 17.2 15.6 90 1014.8 4.5 S 5.4 0.0 0.8
23:45 17.2 15.6 90 1014.7 3.8 SW 5.4 0.0 0.8
23:46 17.2 15.6 90 1014.7 3.8 SW 5.4 0.0 0.8
23:47 17.2 15.6 90 1014.8 4.5 SW 5.4 0.0 0.8
23:48 17.2 15.6 90 1015.0 4.5 SW 5.4 0.0 0.8
23:49 17.2 15.6 90 1015.0 4.5 SW 5.4 0.0 0.8
23:50 17.2 15.6 90 1014.9 3.8 S 5.4 0.0 0.8
23:51 17.2 15.6 90 1014.9 4.5 SSW 5.4 0.0 0.8
23:52 17.2 15.6 90 1015.0 2.2 SW 5.4 0.0 0.8
23:53 17.2 15.6 90 1015.0 0.0 S 5.4 0.0 0.8
23:54 17.2 15.7 91 1015.0 3.8 SW 5.4 0.0 0.8
23:55 17.2 15.7 91 1015.0 3.8 S 4.5 0.0 0.8
23:56 17.2 15.7 91 1015.0 2.2 S 4.5 0.0 0.8
23:57 17.3 15.8 91 1014.8 3.1 SW 4.5 0.0 0.8
23:59 17.3 15.8 91 1014.9 0.0 SW 4.5 0.0 0.8

UK - WEATHER STATION TOPSITES - UK World Weather Websites

This is a private weather station, never base important decisions or events on data from this weather station. Although every effort has been made to make the data as accurate as possible it does not meet MetOffice standards. It is proved as a guide of local weather conditions. We accept no liability for any loss which may arise from use of the data.

Copyright © Carnkie Weather 2009 - 2019.